Time,TemperatureF,DewpointF,PressureIn,WindDirection,WindDirectionDegrees,WindSpeedMPH,WindSpeedGustMPH,Humidity,HourlyPrecipIn,Conditions,Clouds,dailyrainin,SoftwareType,DateUTC
2014-04-23 00:01:00,61.3,59.2,29.77,WNW,294,8.8,8.8,93,0.00,,,0.00,WUHU216WMR968SP,2014-04-23 04:01:00,
2014-04-23 00:06:00,61.3,59.2,29.77,WNW,294,7.2,8.8,93,0.00,,,0.00,WUHU216WMR968SP,2014-04-23 04:06:00,
2014-04-23 00:11:00,61.3,59.9,29.77,WNW,294,8.8,8.8,95,0.00,,,0.00,WUHU216WMR968SP,2014-04-23 04:11:00,
2014-04-23 00:12:00,61.3,59.9,29.77,WNW,294,8.8,8.8,95,0.00,,,0.00,WUHU216WMR968SP,2014-04-23 04:12:00,
2014-04-23 00:16:00,61.3,59.9,29.77,WNW,294,8.8,8.8,95,0.00,,,0.00,WUHU216WMR968SP,2014-04-23 04:16:00,
2014-04-23 00:17:00,61.3,59.9,29.77,WNW,294,8.8,8.8,95,0.00,,,0.00,WUHU216WMR968SP,2014-04-23 04:17:00,
2014-04-23 00:21:00,61.3,59.9,29.77,WNW,294,8.8,8.8,95,0.00,,,0.00,WUHU216WMR968SP,2014-04-23 04:21:00,
2014-04-23 00:22:00,61.3,59.9,29.77,WNW,294,8.8,8.8,95,0.00,,,0.00,WUHU216WMR968SP,2014-04-23 04:22:00,
2014-04-23 00:23:00,61.3,59.9,29.77,WNW,294,7.2,8.8,95,0.00,,,0.00,WUHU216WMR968SP,2014-04-23 04:23:00,
2014-04-23 00:26:00,61.3,59.9,29.77,WNW,294,7.2,8.8,95,0.00,,,0.00,WUHU216WMR968SP,2014-04-23 04:26:00,
2014-04-23 00:27:00,61.3,59.9,29.77,WNW,294,8.8,8.8,95,0.00,,,0.00,WUHU216WMR968SP,2014-04-23 04:27:00,
2014-04-23 00:28:00,61.3,59.9,29.77,WNW,294,7.2,8.8,95,0.00,,,0.00,WUHU216WMR968SP,2014-04-23 04:28:00,
2014-04-23 00:31:00,61.3,59.9,29.77,WNW,294,7.2,8.8,95,0.00,,,0.00,WUHU216WMR968SP,2014-04-23 04:31:00,
2014-04-23 00:32:00,61.3,59.9,29.77,WNW,294,10.1,10.1,95,0.00,,,0.00,WUHU216WMR968SP,2014-04-23 04:32:00,
2014-04-23 00:33:00,61.3,59.9,29.77,WNW,291,10.1,10.1,95,0.00,,,0.00,WUHU216WMR968SP,2014-04-23 04:33:00,
2014-04-23 00:34:00,61.3,59.9,29.77,WNW,291,10.1,10.1,95,0.00,,,0.00,WUHU216WMR968SP,2014-04-23 04:34:00,
2014-04-23 00:36:00,61.3,59.9,29.77,WNW,291,8.8,10.1,95,0.00,,,0.00,WUHU216WMR968SP,2014-04-23 04:36:00,
2014-04-23 00:37:00,61.3,59.9,29.77,WNW,291,8.8,10.1,95,0.00,,,0.00,WUHU216WMR968SP,2014-04-23 04:37:00,
2014-04-23 00:38:00,61.3,59.9,29.77,WNW,291,8.8,10.1,95,0.00,,,0.00,WUHU216WMR968SP,2014-04-23 04:38:00,
2014-04-23 00:39:00,61.3,59.9,29.77,WNW,291,10.1,10.1,95,0.00,,,0.00,WUHU216WMR968SP,2014-04-23 04:39:00,
2014-04-23 00:42:00,61.3,59.9,29.77,WNW,291,10.1,10.1,95,0.00,,,0.00,WUHU216WMR968SP,2014-04-23 04:42:00,
2014-04-23 00:43:00,61.3,59.9,29.77,WNW,291,10.1,10.1,95,0.00,,,0.00,WUHU216WMR968SP,2014-04-23 04:43:00,
2014-04-23 00:44:00,61.3,59.9,29.77,WNW,291,8.8,10.1,95,0.00,,,0.00,WUHU216WMR968SP,2014-04-23 04:44:00,
2014-04-23 00:47:00,61.3,59.9,29.77,WNW,291,0.0,10.1,95,0.00,,,0.00,WUHU216WMR968SP,2014-04-23 04:47:00,
2014-04-23 00:48:00,61.3,59.9,29.77,WNW,291,8.8,10.1,95,0.00,,,0.00,WUHU216WMR968SP,2014-04-23 04:48:00,
2014-04-23 00:49:00,61.3,59.9,29.77,WNW,291,8.8,10.1,95,0.00,,,0.00,WUHU216WMR968SP,2014-04-23 04:49:00,
2014-04-23 00:52:00,61.3,59.9,29.77,WNW,291,8.8,10.1,95,0.00,,,0.00,WUHU216WMR968SP,2014-04-23 04:52:00,
2014-04-23 00:53:00,61.3,59.9,29.77,WNW,291,7.2,8.8,95,0.00,,,0.00,WUHU216WMR968SP,2014-04-23 04:53:00,
2014-04-23 00:54:00,61.3,59.9,29.77,WNW,291,7.2,8.8,95,0.00,,,0.00,WUHU216WMR968SP,2014-04-23 04:54:00,
2014-04-23 00:55:00,61.3,59.9,29.77,WNW,291,7.2,8.8,95,0.00,,,0.00,WUHU216WMR968SP,2014-04-23 04:55:00,
2014-04-23 00:57:00,61.3,59.9,29.77,WNW,291,7.2,8.8,95,0.00,,,0.00,WUHU216WMR968SP,2014-04-23 04:57:00,
2014-04-23 00:59:00,61.2,59.8,29.77,WNW,291,0.0,8.8,95,0.00,,,0.00,WUHU216WMR968SP,2014-04-23 04:59:00,
2014-04-23 01:00:00,61.2,59.8,29.77,WNW,291,0.0,8.8,95,0.00,,,0.00,WUHU216WMR968SP,2014-04-23 05:00:00,
2014-04-23 01:02:00,61.2,59.8,29.77,WNW,291,0.0,8.8,95,0.00,,,0.00,WUHU216WMR968SP,2014-04-23 05:02:00,
2014-04-23 01:03:00,61.2,59.8,29.77,WNW,291,7.2,8.8,95,0.00,,,0.00,WUHU216WMR968SP,2014-04-23 05:03:00,
2014-04-23 01:04:00,61.0,59.6,29.77,WNW,291,7.2,8.8,95,0.00,,,0.00,WUHU216WMR968SP,2014-04-23 05:04:00,
2014-04-23 01:05:00,61.0,59.6,29.77,WNW,291,7.2,8.8,95,0.00,,,0.00,WUHU216WMR968SP,2014-04-23 05:05:00,
2014-04-23 01:07:00,61.0,59.6,29.77,WNW,291,7.2,8.8,95,0.00,,,0.00,WUHU216WMR968SP,2014-04-23 05:07:00,
2014-04-23 01:08:00,61.0,59.6,29.77,WNW,291,7.2,8.8,95,0.00,,,0.00,WUHU216WMR968SP,2014-04-23 05:08:00,
2014-04-23 01:09:00,61.0,59.6,29.77,WNW,291,7.2,8.8,95,0.00,,,0.00,WUHU216WMR968SP,2014-04-23 05:09:00,
2014-04-23 01:11:00,60.8,59.4,29.77,WNW,291,8.8,8.8,95,0.00,,,0.00,WUHU216WMR968SP,2014-04-23 05:11:00,
2014-04-23 01:14:00,60.8,59.4,29.77,WNW,291,7.2,8.8,95,0.00,,,0.00,WUHU216WMR968SP,2014-04-23 05:14:00,
2014-04-23 01:16:00,60.6,59.9,29.77,WNW,291,7.2,8.8,98,0.00,,,0.00,WUHU216WMR968SP,2014-04-23 05:16:00,
2014-04-23 01:19:00,60.6,59.9,29.77,WNW,291,7.2,8.8,98,0.00,,,0.00,WUHU216WMR968SP,2014-04-23 05:19:00,
2014-04-23 01:20:00,60.6,59.9,29.77,WNW,291,7.2,8.8,98,0.00,,,0.00,WUHU216WMR968SP,2014-04-23 05:20:00,
2014-04-23 01:21:00,60.6,59.9,29.77,WNW,291,7.2,7.2,98,0.00,,,0.00,WUHU216WMR968SP,2014-04-23 05:21:00,
2014-04-23 01:24:00,60.4,59.7,29.77,WNW,291,0.0,7.2,98,0.00,,,0.00,WUHU216WMR968SP,2014-04-23 05:24:00,
2014-04-23 01:25:00,60.4,59.7,29.77,WNW,291,7.2,7.2,98,0.00,,,0.00,WUHU216WMR968SP,2014-04-23 05:25:00,
2014-04-23 01:26:00,60.4,59.7,29.77,WNW,291,0.0,7.2,98,0.00,,,0.00,WUHU216WMR968SP,2014-04-23 05:26:00,
2014-04-23 01:27:00,60.3,59.6,29.77,WNW,291,0.0,7.2,98,0.00,,,0.00,WUHU216WMR968SP,2014-04-23 05:27:00,
2014-04-23 01:29:00,60.3,59.6,29.77,WNW,291,7.2,7.2,98,0.00,,,0.00,WUHU216WMR968SP,2014-04-23 05:29:00,
2014-04-23 01:30:00,60.3,59.6,29.77,WNW,291,8.8,8.8,98,0.00,,,0.00,WUHU216WMR968SP,2014-04-23 05:30:00,
2014-04-23 01:31:00,60.1,59.4,29.77,WNW,291,8.8,8.8,98,0.00,,,0.00,WUHU216WMR968SP,2014-04-23 05:31:00,
2014-04-23 01:32:00,60.1,59.4,29.77,WNW,291,8.8,8.8,98,0.00,,,0.00,WUHU216WMR968SP,2014-04-23 05:32:00,
2014-04-23 01:34:00,60.1,59.4,29.77,WNW,291,8.8,8.8,98,0.00,,,0.00,WUHU216WMR968SP,2014-04-23 05:34:00,
2014-04-23 01:35:00,60.1,59.4,29.77,WNW,291,8.8,8.8,98,0.00,,,0.00,WUHU216WMR968SP,2014-04-23 05:35:00,
2014-04-23 01:36:00,59.9,59.2,29.77,WNW,291,10.1,10.1,98,0.00,,,0.00,WUHU216WMR968SP,2014-04-23 05:36:00,
2014-04-23 01:37:00,59.9,59.9,29.77,WNW,291,7.2,10.1,100,0.00,,,0.00,WUHU216WMR968SP,2014-04-23 05:37:00,
2014-04-23 01:38:00,59.9,59.9,29.77,WNW,291,7.2,10.1,100,0.00,,,0.00,WUHU216WMR968SP,2014-04-23 05:38:00,
2014-04-23 01:40:00,59.9,59.9,29.77,WNW,291,7.2,10.1,100,0.00,,,0.00,WUHU216WMR968SP,2014-04-23 05:40:00,
2014-04-23 01:41:00,59.7,59.7,29.77,WNW,291,8.8,10.1,100,0.00,,,0.00,WUHU216WMR968SP,2014-04-23 05:41:00,
2014-04-23 01:42:00,59.7,59.7,29.77,WNW,291,7.2,10.1,100,0.00,,,0.00,WUHU216WMR968SP,2014-04-23 05:42:00,
2014-04-23 01:43:00,59.7,59.7,29.77,WNW,291,7.2,10.1,100,0.00,,,0.00,WUHU216WMR968SP,2014-04-23 05:43:00,
2014-04-23 01:45:00,59.7,59.7,29.77,WNW,291,7.2,10.1,100,0.00,,,0.00,WUHU216WMR968SP,2014-04-23 05:45:00,
2014-04-23 01:46:00,59.7,59.7,29.77,WNW,291,7.2,10.1,100,0.00,,,0.00,WUHU216WMR968SP,2014-04-23 05:46:00,
2014-04-23 01:48:00,59.7,59.7,29.77,WNW,291,7.2,8.8,100,0.00,,,0.00,WUHU216WMR968SP,2014-04-23 05:48:00,
2014-04-23 01:50:00,59.7,59.7,29.77,WNW,291,0.0,8.8,100,0.00,,,0.00,WUHU216WMR968SP,2014-04-23 05:50:00,
2014-04-23 01:51:00,59.9,59.9,29.77,WNW,291,7.2,8.8,100,0.00,,,0.00,WUHU216WMR968SP,2014-04-23 05:51:00,
2014-04-23 01:53:00,59.9,59.9,29.77,WNW,291,8.8,8.8,100,0.00,,,0.00,WUHU216WMR968SP,2014-04-23 05:53:00,
2014-04-23 01:54:00,59.9,59.9,29.77,WNW,291,7.2,8.8,100,0.00,,,0.00,WUHU216WMR968SP,2014-04-23 05:54:00,
2014-04-23 01:55:00,59.9,59.9,29.77,WNW,291,7.2,8.8,100,0.00,,,0.00,WUHU216WMR968SP,2014-04-23 05:55:00,
2014-04-23 01:57:00,60.1,60.1,29.77,WNW,291,8.8,8.8,100,0.00,,,0.00,WUHU216WMR968SP,2014-04-23 05:57:00,
2014-04-23 01:58:00,60.1,60.1,29.77,WNW,291,7.2,8.8,100,0.00,,,0.00,WUHU216WMR968SP,2014-04-23 05:58:00,
2014-04-23 01:59:00,60.1,60.1,29.77,WNW,291,7.2,8.8,100,0.00,,,0.00,WUHU216WMR968SP,2014-04-23 05:59:00,
2014-04-23 02:00:00,60.1,60.1,29.77,WNW,291,0.0,8.8,100,0.00,,,0.00,WUHU216WMR968SP,2014-04-23 06:00:00,
2014-04-23 02:01:00,60.3,60.3,29.77,WNW,291,0.0,8.8,100,0.00,,,0.00,WUHU216WMR968SP,2014-04-23 06:01:00,
2014-04-23 02:02:00,60.3,60.3,29.77,WNW,291,0.0,8.8,100,0.00,,,0.00,WUHU216WMR968SP,2014-04-23 06:02:00,
2014-04-23 02:04:00,60.3,60.3,29.77,WNW,291,0.0,8.8,100,0.00,,,0.00,WUHU216WMR968SP,2014-04-23 06:04:00,
2014-04-23 02:05:00,60.3,60.3,29.77,WNW,291,0.0,8.8,100,0.00,,,0.00,WUHU216WMR968SP,2014-04-23 06:05:00,
2014-04-23 02:06:00,60.1,60.1,29.77,WNW,291,0.0,8.8,100,0.00,,,0.00,WUHU216WMR968SP,2014-04-23 06:06:00,
2014-04-23 02:07:00,60.1,60.1,29.77,WNW,291,0.0,8.8,100,0.00,,,0.00,WUHU216WMR968SP,2014-04-23 06:07:00,
2014-04-23 02:10:00,60.1,60.1,29.77,WNW,291,0.0,7.2,100,0.00,,,0.00,WUHU216WMR968SP,2014-04-23 06:10:00,
2014-04-23 02:11:00,60.1,60.1,29.77,WNW,291,0.0,7.2,100,0.00,,,0.00,WUHU216WMR968SP,2014-04-23 06:11:00,
2014-04-23 02:12:00,60.1,60.1,29.74,WNW,291,0.0,7.2,100,0.00,,,0.00,WUHU216WMR968SP,2014-04-23 06:12:00,
2014-04-23 02:15:00,60.1,60.1,29.74,WNW,291,0.0,0.0,100,0.00,,,0.00,WUHU216WMR968SP,2014-04-23 06:15:00,
2014-04-23 02:16:00,60.1,60.1,29.74,WNW,291,0.0,0.0,100,0.00,,,0.00,WUHU216WMR968SP,2014-04-23 06:16:00,
2014-04-23 02:17:00,60.1,60.1,29.74,WNW,291,0.0,0.0,100,0.00,,,0.00,WUHU216WMR968SP,2014-04-23 06:17:00,
2014-04-23 02:18:00,60.1,60.1,29.74,WNW,291,0.0,0.0,100,0.00,,,0.00,WUHU216WMR968SP,2014-04-23 06:18:00,
2014-04-23 02:20:00,60.1,60.1,29.74,WNW,291,0.0,0.0,100,0.00,,,0.00,WUHU216WMR968SP,2014-04-23 06:20:00,
2014-04-23 02:21:00,60.1,60.1,29.74,WNW,291,0.0,0.0,100,0.00,,,0.00,WUHU216WMR968SP,2014-04-23 06:21:00,
2014-04-23 02:22:00,60.1,60.1,29.74,WNW,291,0.0,0.0,100,0.00,,,0.00,WUHU216WMR968SP,2014-04-23 06:22:00,
2014-04-23 02:23:00,60.1,60.1,29.74,WNW,291,0.0,0.0,100,0.00,,,0.00,WUHU216WMR968SP,2014-04-23 06:23:00,
2014-04-23 02:26:00,59.9,59.9,29.74,WNW,291,0.0,0.0,100,0.00,,,0.00,WUHU216WMR968SP,2014-04-23 06:26:00,
2014-04-23 02:27:00,59.9,59.9,29.74,WNW,291,0.0,0.0,100,0.00,,,0.00,WUHU216WMR968SP,2014-04-23 06:27:00,
2014-04-23 02:28:00,59.9,59.9,29.74,WNW,291,0.0,0.0,100,0.00,,,0.00,WUHU216WMR968SP,2014-04-23 06:28:00,
2014-04-23 02:31:00,59.5,59.5,29.74,WNW,291,0.0,0.0,100,0.00,,,0.00,WUHU216WMR968SP,2014-04-23 06:31:00,
2014-04-23 02:32:00,59.5,59.5,29.74,WNW,291,0.0,0.0,100,0.00,,,0.00,WUHU216WMR968SP,2014-04-23 06:32:00,
2014-04-23 02:33:00,59.4,59.4,29.74,WNW,291,0.0,0.0,100,0.00,,,0.00,WUHU216WMR968SP,2014-04-23 06:33:00,
2014-04-23 02:38:00,59.2,59.2,29.74,WNW,291,0.0,0.0,100,0.00,,,0.00,WUHU216WMR968SP,2014-04-23 06:38:00,
2014-04-23 02:43:00,59.2,59.2,29.74,WNW,291,0.0,0.0,100,0.00,,,0.00,WUHU216WMR968SP,2014-04-23 06:43:00,
2014-04-23 02:44:00,59.2,59.2,29.74,WNW,291,0.0,0.0,100,0.00,,,0.00,WUHU216WMR968SP,2014-04-23 06:44:00,
2014-04-23 02:48:00,59.4,59.4,29.74,WNW,291,10.1,10.1,100,0.00,,,0.00,WUHU216WMR968SP,2014-04-23 06:48:00,
2014-04-23 02:49:00,59.4,59.4,29.74,WNW,291,8.8,10.1,100,0.00,,,0.00,WUHU216WMR968SP,2014-04-23 06:49:00,
2014-04-23 02:53:00,59.4,59.4,29.74,WNW,291,10.1,10.1,100,0.00,,,0.00,WUHU216WMR968SP,2014-04-23 06:53:00,
2014-04-23 02:54:00,59.4,59.4,29.74,WNW,291,10.1,10.1,100,0.00,,,0.00,WUHU216WMR968SP,2014-04-23 06:54:00,
2014-04-23 02:55:00,59.5,59.5,29.74,WNW,291,10.1,10.1,100,0.00,,,0.00,WUHU216WMR968SP,2014-04-23 06:55:00,
2014-04-23 02:58:00,59.7,59.7,29.74,WNW,291,10.1,10.1,100,0.00,,,0.00,WUHU216WMR968SP,2014-04-23 06:58:00,
2014-04-23 02:59:00,59.7,59.7,29.74,WNW,291,10.1,10.1,100,0.00,,,0.00,WUHU216WMR968SP,2014-04-23 06:59:00,
2014-04-23 03:00:00,59.9,59.9,29.74,WNW,291,8.8,10.1,100,0.00,,,0.00,WUHU216WMR968SP,2014-04-23 07:00:00,
2014-04-23 03:03:00,60.3,59.6,29.74,WNW,291,8.8,10.1,98,0.00,,,0.00,WUHU216WMR968SP,2014-04-23 07:03:00,
2014-04-23 03:04:00,60.3,59.6,29.74,WNW,295,11.7,11.7,98,0.00,,,0.00,WUHU216WMR968SP,2014-04-23 07:04:00,
2014-04-23 03:05:00,60.3,59.6,29.74,WNW,295,8.8,11.7,98,0.00,,,0.00,WUHU216WMR968SP,2014-04-23 07:05:00,
2014-04-23 03:09:00,60.6,59.2,29.74,WNW,295,11.7,11.7,95,0.00,,,0.00,WUHU216WMR968SP,2014-04-23 07:09:00,
2014-04-23 03:10:00,60.6,58.5,29.74,WNW,295,7.2,11.7,93,0.00,,,0.00,WUHU216WMR968SP,2014-04-23 07:10:00,
2014-04-23 03:14:00,60.8,57.9,29.74,WNW,295,8.8,11.7,90,0.00,,,0.00,WUHU216WMR968SP,2014-04-23 07:14:00,
2014-04-23 03:15:00,61.0,58.1,29.74,WNW,295,10.1,11.7,90,0.00,,,0.00,WUHU216WMR968SP,2014-04-23 07:15:00,
2014-04-23 03:19:00,61.0,57.4,29.74,WNW,295,11.7,11.7,88,0.00,,,0.00,WUHU216WMR968SP,2014-04-23 07:19:00,
2014-04-23 03:20:00,61.2,57.6,29.74,WNW,295,10.1,11.7,88,0.00,,,0.00,WUHU216WMR968SP,2014-04-23 07:20:00,
2014-04-23 03:21:00,61.2,57.6,29.74,WNW,295,8.8,11.7,88,0.00,,,0.00,WUHU216WMR968SP,2014-04-23 07:21:00,
2014-04-23 03:24:00,61.2,56.8,29.74,WNW,295,8.8,11.7,85,0.00,,,0.00,WUHU216WMR968SP,2014-04-23 07:24:00,
2014-04-23 03:25:00,61.2,56.8,29.74,WNW,295,8.8,11.7,85,0.00,,,0.00,WUHU216WMR968SP,2014-04-23 07:25:00,
2014-04-23 03:26:00,61.3,56.1,29.74,WNW,295,8.8,11.7,83,0.00,,,0.00,WUHU216WMR968SP,2014-04-23 07:26:00,
2014-04-23 03:30:00,61.3,55.3,29.77,WNW,295,8.8,10.1,81,0.00,,,0.00,WUHU216WMR968SP,2014-04-23 07:30:00,
2014-04-23 03:31:00,61.3,55.3,29.77,WNW,295,7.2,10.1,81,0.00,,,0.00,WUHU216WMR968SP,2014-04-23 07:31:00,
2014-04-23 03:35:00,61.3,54.5,29.77,WNW,295,0.0,8.8,78,0.00,,,0.00,WUHU216WMR968SP,2014-04-23 07:35:00,
2014-04-23 03:36:00,61.3,54.5,29.77,WNW,295,0.0,8.8,78,0.00,,,0.00,WUHU216WMR968SP,2014-04-23 07:36:00,
2014-04-23 03:37:00,61.3,53.6,29.77,WNW,295,7.2,8.8,76,0.00,,,0.00,WUHU216WMR968SP,2014-04-23 07:37:00,
2014-04-23 03:40:00,61.3,53.6,29.77,WNW,295,7.2,8.8,76,0.00,,,0.00,WUHU216WMR968SP,2014-04-23 07:40:00,
2014-04-23 03:41:00,61.3,53.6,29.77,WNW,295,8.8,8.8,76,0.00,,,0.00,WUHU216WMR968SP,2014-04-23 07:41:00,
2014-04-23 03:42:00,61.3,53.6,29.77,WNW,295,8.8,8.8,76,0.00,,,0.00,WUHU216WMR968SP,2014-04-23 07:42:00,
2014-04-23 03:43:00,61.3,53.6,29.77,WNW,295,8.8,8.8,76,0.00,,,0.00,WUHU216WMR968SP,2014-04-23 07:43:00,
2014-04-23 03:45:00,61.2,53.5,29.77,WNW,295,8.8,8.8,76,0.00,,,0.00,WUHU216WMR968SP,2014-04-23 07:45:00,
2014-04-23 03:46:00,61.2,52.6,29.77,WNW,295,8.8,8.8,73,0.00,,,0.00,WUHU216WMR968SP,2014-04-23 07:46:00,
2014-04-23 03:47:00,61.2,52.6,29.77,WNW,295,10.1,10.1,73,0.00,,,0.00,WUHU216WMR968SP,2014-04-23 07:47:00,
2014-04-23 03:48:00,61.0,52.4,29.77,WNW,295,8.8,10.1,73,0.00,,,0.00,WUHU216WMR968SP,2014-04-23 07:48:00,
2014-04-23 03:50:00,60.8,52.2,29.77,WNW,295,7.2,10.1,73,0.00,,,0.00,WUHU216WMR968SP,2014-04-23 07:50:00,
2014-04-23 03:51:00,60.8,52.2,29.77,WNW,295,7.2,10.1,73,0.00,,,0.00,WUHU216WMR968SP,2014-04-23 07:51:00,
2014-04-23 03:53:00,60.6,52.9,29.77,WNW,295,7.2,10.1,76,0.00,,,0.00,WUHU216WMR968SP,2014-04-23 07:53:00,
2014-04-23 03:56:00,60.6,52.9,29.77,WNW,295,7.2,10.1,76,0.00,,,0.00,WUHU216WMR968SP,2014-04-23 07:56:00,
2014-04-23 03:58:00,60.4,52.7,29.77,WNW,295,0.0,8.8,76,0.00,,,0.00,WUHU216WMR968SP,2014-04-23 07:58:00,
2014-04-23 03:59:00,60.4,52.7,29.77,WNW,295,0.0,8.8,76,0.00,,,0.00,WUHU216WMR968SP,2014-04-23 07:59:00,
2014-04-23 04:01:00,60.4,52.7,29.77,WNW,295,0.0,7.2,76,0.00,,,0.00,WUHU216WMR968SP,2014-04-23 08:01:00,
2014-04-23 04:02:00,60.3,52.6,29.77,WNW,295,7.2,7.2,76,0.00,,,0.00,WUHU216WMR968SP,2014-04-23 08:02:00,
2014-04-23 04:03:00,60.3,52.6,29.77,WNW,295,0.0,7.2,76,0.00,,,0.00,WUHU216WMR968SP,2014-04-23 08:03:00,
2014-04-23 04:04:00,60.3,52.6,29.77,WNW,295,0.0,7.2,76,0.00,,,0.00,WUHU216WMR968SP,2014-04-23 08:04:00,
2014-04-23 04:06:00,60.1,52.4,29.77,WNW,295,0.0,7.2,76,0.00,,,0.00,WUHU216WMR968SP,2014-04-23 08:06:00,
2014-04-23 04:07:00,60.1,52.4,29.77,WNW,295,0.0,7.2,76,0.00,,,0.00,WUHU216WMR968SP,2014-04-23 08:07:00,
2014-04-23 04:09:00,60.1,53.3,29.77,WNW,295,0.0,7.2,78,0.00,,,0.00,WUHU216WMR968SP,2014-04-23 08:09:00,
2014-04-23 04:11:00,60.1,53.3,29.77,WNW,295,0.0,7.2,78,0.00,,,0.00,WUHU216WMR968SP,2014-04-23 08:11:00,
2014-04-23 04:12:00,59.9,53.1,29.77,WNW,295,0.0,7.2,78,0.00,,,0.00,WUHU216WMR968SP,2014-04-23 08:12:00,
2014-04-23 04:15:00,59.7,53.7,29.77,WNW,295,0.0,0.0,81,0.00,,,0.00,WUHU216WMR968SP,2014-04-23 08:15:00,
2014-04-23 04:16:00,59.5,53.5,29.77,WNW,295,0.0,0.0,81,0.00,,,0.00,WUHU216WMR968SP,2014-04-23 08:16:00,
2014-04-23 04:17:00,59.4,53.4,29.77,WNW,295,0.0,0.0,81,0.00,,,0.00,WUHU216WMR968SP,2014-04-23 08:17:00,
2014-04-23 04:20:00,59.2,53.2,29.77,WNW,295,0.0,0.0,81,0.00,,,0.00,WUHU216WMR968SP,2014-04-23 08:20:00,
2014-04-23 04:21:00,59.2,53.2,29.77,WNW,295,0.0,0.0,81,0.00,,,0.00,WUHU216WMR968SP,2014-04-23 08:21:00,
2014-04-23 04:22:00,59.2,53.2,29.77,WNW,295,0.0,0.0,81,0.00,,,0.00,WUHU216WMR968SP,2014-04-23 08:22:00,
2014-04-23 04:25:00,58.8,53.7,29.77,WNW,295,0.0,0.0,83,0.00,,,0.00,WUHU216WMR968SP,2014-04-23 08:25:00,
2014-04-23 04:26:00,58.8,53.7,29.77,WNW,295,0.0,0.0,83,0.00,,,0.00,WUHU216WMR968SP,2014-04-23 08:26:00,
2014-04-23 04:27:00,58.6,53.5,29.77,WNW,295,0.0,0.0,83,0.00,,,0.00,WUHU216WMR968SP,2014-04-23 08:27:00,
2014-04-23 04:30:00,58.3,53.9,29.77,WNW,295,0.0,0.0,85,0.00,,,0.00,WUHU216WMR968SP,2014-04-23 08:30:00,
2014-04-23 04:31:00,58.3,53.9,29.77,WNW,295,0.0,0.0,85,0.00,,,0.00,WUHU216WMR968SP,2014-04-23 08:31:00,
2014-04-23 04:32:00,58.3,53.9,29.77,WNW,295,0.0,0.0,85,0.00,,,0.00,WUHU216WMR968SP,2014-04-23 08:32:00,
2014-04-23 04:36:00,57.9,54.3,29.77,WNW,295,0.0,0.0,88,0.00,,,0.00,WUHU216WMR968SP,2014-04-23 08:36:00,
2014-04-23 04:37:00,57.9,54.3,29.77,WNW,295,0.0,0.0,88,0.00,,,0.00,WUHU216WMR968SP,2014-04-23 08:37:00,
2014-04-23 04:38:00,57.9,54.3,29.77,WNW,295,0.0,0.0,88,0.00,,,0.00,WUHU216WMR968SP,2014-04-23 08:38:00,
2014-04-23 04:41:00,57.6,54.8,29.77,WNW,295,0.0,0.0,90,0.00,,,0.00,WUHU216WMR968SP,2014-04-23 08:41:00,
2014-04-23 04:42:00,57.6,54.8,29.77,WNW,295,0.0,0.0,90,0.00,,,0.00,WUHU216WMR968SP,2014-04-23 08:42:00,
2014-04-23 04:43:00,57.6,54.8,29.77,WNW,295,0.0,0.0,90,0.00,,,0.00,WUHU216WMR968SP,2014-04-23 08:43:00,
2014-04-23 04:46:00,57.4,54.6,29.77,WNW,295,0.0,0.0,90,0.00,,,0.00,WUHU216WMR968SP,2014-04-23 08:46:00,
2014-04-23 04:47:00,57.4,54.6,29.77,WNW,295,0.0,0.0,90,0.00,,,0.00,WUHU216WMR968SP,2014-04-23 08:47:00,
2014-04-23 04:48:00,57.4,54.6,29.77,WNW,295,0.0,0.0,90,0.00,,,0.00,WUHU216WMR968SP,2014-04-23 08:48:00,
2014-04-23 04:51:00,57.2,54.4,29.77,WNW,295,0.0,0.0,90,0.00,,,0.00,WUHU216WMR968SP,2014-04-23 08:51:00,
2014-04-23 04:52:00,57.2,54.4,29.77,WNW,295,0.0,0.0,90,0.00,,,0.00,WUHU216WMR968SP,2014-04-23 08:52:00,
2014-04-23 04:53:00,57.0,54.2,29.77,WNW,295,0.0,0.0,90,0.00,,,0.00,WUHU216WMR968SP,2014-04-23 08:53:00,
2014-04-23 04:56:00,56.8,54.7,29.77,WNW,295,0.0,0.0,93,0.00,,,0.00,WUHU216WMR968SP,2014-04-23 08:56:00,
2014-04-23 04:57:00,56.8,54.7,29.77,WNW,295,0.0,0.0,93,0.00,,,0.00,WUHU216WMR968SP,2014-04-23 08:57:00,
2014-04-23 04:58:00,56.8,54.7,29.77,WNW,295,0.0,0.0,93,0.00,,,0.00,WUHU216WMR968SP,2014-04-23 08:58:00,
2014-04-23 05:02:00,56.8,54.7,29.77,WNW,295,0.0,0.0,93,0.00,,,0.00,WUHU216WMR968SP,2014-04-23 09:02:00,
2014-04-23 05:03:00,56.8,54.7,29.77,WNW,295,0.0,0.0,93,0.00,,,0.00,WUHU216WMR968SP,2014-04-23 09:03:00,
2014-04-23 05:04:00,56.8,54.7,29.77,WNW,295,0.0,0.0,93,0.00,,,0.00,WUHU216WMR968SP,2014-04-23 09:04:00,
2014-04-23 05:07:00,56.7,54.6,29.77,WNW,295,0.0,0.0,93,0.00,,,0.00,WUHU216WMR968SP,2014-04-23 09:07:00,
2014-04-23 05:08:00,56.7,55.3,29.77,WNW,295,0.0,0.0,95,0.00,,,0.00,WUHU216WMR968SP,2014-04-23 09:08:00,
2014-04-23 05:09:00,56.7,55.3,29.77,WNW,295,0.0,0.0,95,0.00,,,0.00,WUHU216WMR968SP,2014-04-23 09:09:00,
2014-04-23 05:12:00,56.7,55.3,29.77,WNW,295,0.0,0.0,95,0.00,,,0.00,WUHU216WMR968SP,2014-04-23 09:12:00,
2014-04-23 05:13:00,56.7,55.3,29.77,WNW,295,0.0,0.0,95,0.00,,,0.00,WUHU216WMR968SP,2014-04-23 09:13:00,
2014-04-23 05:14:00,56.7,55.3,29.77,WNW,295,0.0,0.0,95,0.00,,,0.00,WUHU216WMR968SP,2014-04-23 09:14:00,
2014-04-23 05:17:00,56.5,55.1,29.77,WNW,295,0.0,0.0,95,0.00,,,0.00,WUHU216WMR968SP,2014-04-23 09:17:00,
2014-04-23 05:18:00,56.5,55.1,29.77,WNW,295,0.0,0.0,95,0.00,,,0.00,WUHU216WMR968SP,2014-04-23 09:18:00,
2014-04-23 05:19:00,56.5,55.1,29.77,WNW,295,0.0,0.0,95,0.00,,,0.00,WUHU216WMR968SP,2014-04-23 09:19:00,
2014-04-23 05:22:00,56.3,54.9,29.77,WNW,295,0.0,0.0,95,0.00,,,0.00,WUHU216WMR968SP,2014-04-23 09:22:00,
2014-04-23 05:23:00,56.3,54.9,29.77,WNW,295,0.0,0.0,95,0.00,,,0.00,WUHU216WMR968SP,2014-04-23 09:23:00,
2014-04-23 05:24:00,56.3,54.9,29.77,WNW,295,0.0,0.0,95,0.00,,,0.00,WUHU216WMR968SP,2014-04-23 09:24:00,
2014-04-23 05:25:00,56.3,55.7,29.77,WNW,295,0.0,0.0,98,0.00,,,0.00,WUHU216WMR968SP,2014-04-23 09:25:00,
2014-04-23 05:28:00,56.1,55.5,29.77,WNW,295,0.0,0.0,98,0.00,,,0.00,WUHU216WMR968SP,2014-04-23 09:28:00,
2014-04-23 05:29:00,55.9,55.3,29.77,WNW,295,0.0,0.0,98,0.00,,,0.00,WUHU216WMR968SP,2014-04-23 09:29:00,
2014-04-23 05:30:00,55.9,55.3,29.77,WNW,295,0.0,0.0,98,0.00,,,0.00,WUHU216WMR968SP,2014-04-23 09:30:00,
2014-04-23 05:33:00,55.8,55.2,29.77,WNW,295,0.0,0.0,98,0.00,,,0.00,WUHU216WMR968SP,2014-04-23 09:33:00,
2014-04-23 05:35:00,55.6,55.0,29.77,WNW,295,0.0,0.0,98,0.00,,,0.00,WUHU216WMR968SP,2014-04-23 09:35:00,
2014-04-23 05:36:00,55.4,54.8,29.77,WNW,295,0.0,0.0,98,0.00,,,0.00,WUHU216WMR968SP,2014-04-23 09:36:00,
2014-04-23 05:38:00,55.2,55.2,29.77,WNW,295,0.0,0.0,100,0.00,,,0.00,WUHU216WMR968SP,2014-04-23 09:38:00,
2014-04-23 05:40:00,55.0,55.0,29.77,WNW,295,0.0,0.0,100,0.00,,,0.00,WUHU216WMR968SP,2014-04-23 09:40:00,
2014-04-23 05:43:00,54.9,54.9,29.77,WNW,295,0.0,0.0,100,0.00,,,0.00,WUHU216WMR968SP,2014-04-23 09:43:00,
2014-04-23 05:44:00,54.9,54.9,29.77,WNW,295,0.0,0.0,100,0.00,,,0.00,WUHU216WMR968SP,2014-04-23 09:44:00,
2014-04-23 05:45:00,54.7,54.7,29.77,WNW,295,0.0,0.0,100,0.00,,,0.00,WUHU216WMR968SP,2014-04-23 09:45:00,
2014-04-23 05:48:00,54.5,54.5,29.77,WNW,295,0.0,0.0,100,0.00,,,0.00,WUHU216WMR968SP,2014-04-23 09:48:00,
2014-04-23 05:49:00,54.3,54.3,29.77,WNW,295,0.0,0.0,100,0.00,,,0.00,WUHU216WMR968SP,2014-04-23 09:49:00,
2014-04-23 05:51:00,54.1,54.1,29.77,WNW,295,0.0,0.0,100,0.00,,,0.00,WUHU216WMR968SP,2014-04-23 09:51:00,
2014-04-23 05:53:00,54.0,54.0,29.77,WNW,295,0.0,0.0,100,0.00,,,0.00,WUHU216WMR968SP,2014-04-23 09:53:00,
2014-04-23 05:54:00,53.8,53.8,29.77,WNW,295,0.0,0.0,100,0.00,,,0.00,WUHU216WMR968SP,2014-04-23 09:54:00,
2014-04-23 05:56:00,53.6,53.6,29.77,WNW,295,0.0,0.0,100,0.00,,,0.00,WUHU216WMR968SP,2014-04-23 09:56:00,
2014-04-23 05:58:00,53.4,53.4,29.80,WNW,295,0.0,0.0,100,0.00,,,0.00,WUHU216WMR968SP,2014-04-23 09:58:00,
2014-04-23 05:59:00,53.4,53.4,29.80,WNW,295,0.0,0.0,100,0.00,,,0.00,WUHU216WMR968SP,2014-04-23 09:59:00,
2014-04-23 06:00:00,53.4,53.4,29.80,WNW,295,0.0,0.0,100,0.00,,,0.00,WUHU216WMR968SP,2014-04-23 10:00:00,
2014-04-23 06:01:00,53.2,53.2,29.80,WNW,295,0.0,0.0,100,0.00,,,0.00,WUHU216WMR968SP,2014-04-23 10:01:00,
2014-04-23 06:03:00,53.1,53.1,29.80,WNW,295,0.0,0.0,100,0.00,,,0.00,WUHU216WMR968SP,2014-04-23 10:03:00,
2014-04-23 06:04:00,53.1,53.1,29.80,WNW,295,0.0,0.0,100,0.00,,,0.00,WUHU216WMR968SP,2014-04-23 10:04:00,
2014-04-23 06:05:00,52.9,52.9,29.80,WNW,295,0.0,0.0,100,0.00,,,0.00,WUHU216WMR968SP,2014-04-23 10:05:00,
2014-04-23 06:07:00,52.9,52.9,29.80,WNW,295,0.0,0.0,100,0.00,,,0.00,WUHU216WMR968SP,2014-04-23 10:07:00,
2014-04-23 06:09:00,52.7,52.7,29.80,WNW,295,0.0,0.0,100,0.00,,,0.00,WUHU216WMR968SP,2014-04-23 10:09:00,
2014-04-23 06:10:00,52.7,52.7,29.80,WNW,295,0.0,0.0,100,0.00,,,0.00,WUHU216WMR968SP,2014-04-23 10:10:00,
2014-04-23 06:12:00,52.5,52.5,29.80,WNW,295,0.0,0.0,100,0.00,,,0.00,WUHU216WMR968SP,2014-04-23 10:12:00,
2014-04-23 06:14:00,52.3,52.3,29.80,WNW,295,0.0,0.0,100,0.00,,,0.00,WUHU216WMR968SP,2014-04-23 10:14:00,
2014-04-23 06:15:00,52.3,52.3,29.80,WNW,295,0.0,0.0,100,0.00,,,0.00,WUHU216WMR968SP,2014-04-23 10:15:00,
2014-04-23 06:16:00,52.3,52.3,29.80,WNW,295,0.0,0.0,100,0.00,,,0.00,WUHU216WMR968SP,2014-04-23 10:16:00,
2014-04-23 06:17:00,52.2,52.2,29.80,WNW,295,0.0,0.0,100,0.00,,,0.00,WUHU216WMR968SP,2014-04-23 10:17:00,
2014-04-23 06:19:00,52.2,52.2,29.80,WNW,295,0.0,0.0,100,0.00,,,0.00,WUHU216WMR968SP,2014-04-23 10:19:00,
2014-04-23 06:20:00,52.2,52.2,29.80,WNW,295,0.0,0.0,100,0.00,,,0.00,WUHU216WMR968SP,2014-04-23 10:20:00,
2014-04-23 06:21:00,52.2,52.2,29.80,WNW,295,0.0,0.0,100,0.00,,,0.00,WUHU216WMR968SP,2014-04-23 10:21:00,
2014-04-23 06:22:00,52.2,52.2,29.80,WNW,295,0.0,0.0,100,0.00,,,0.00,WUHU216WMR968SP,2014-04-23 10:22:00,
2014-04-23 06:24:00,52.0,52.0,29.80,WNW,295,0.0,0.0,100,0.00,,,0.00,WUHU216WMR968SP,2014-04-23 10:24:00,
2014-04-23 06:25:00,52.0,52.0,29.80,WNW,295,0.0,0.0,100,0.00,,,0.00,WUHU216WMR968SP,2014-04-23 10:25:00,
2014-04-23 06:26:00,52.0,52.0,29.80,WNW,295,0.0,0.0,100,0.00,,,0.00,WUHU216WMR968SP,2014-04-23 10:26:00,
2014-04-23 06:27:00,51.8,51.8,29.80,WNW,295,0.0,0.0,100,0.00,,,0.00,WUHU216WMR968SP,2014-04-23 10:27:00,
2014-04-23 06:30:00,51.8,51.8,29.80,WNW,295,0.0,0.0,100,0.00,,,0.00,WUHU216WMR968SP,2014-04-23 10:30:00,
2014-04-23 06:31:00,51.8,51.8,29.80,WNW,295,0.0,0.0,100,0.00,,,0.00,WUHU216WMR968SP,2014-04-23 10:31:00,
2014-04-23 06:32:00,51.6,51.6,29.80,WNW,295,0.0,0.0,100,0.00,,,0.00,WUHU216WMR968SP,2014-04-23 10:32:00,
2014-04-23 06:35:00,51.6,51.6,29.80,WNW,295,0.0,0.0,100,0.00,,,0.00,WUHU216WMR968SP,2014-04-23 10:35:00,
2014-04-23 06:36:00,51.6,51.6,29.80,WNW,295,0.0,0.0,100,0.00,,,0.00,WUHU216WMR968SP,2014-04-23 10:36:00,
2014-04-23 06:37:00,51.4,51.4,29.80,WNW,295,0.0,0.0,100,0.00,,,0.00,WUHU216WMR968SP,2014-04-23 10:37:00,
2014-04-23 06:38:00,51.4,51.4,29.80,WNW,295,0.0,0.0,100,0.00,,,0.00,WUHU216WMR968SP,2014-04-23 10:38:00,
2014-04-23 06:40:00,51.4,51.4,29.80,WNW,295,0.0,0.0,100,0.00,,,0.00,WUHU216WMR968SP,2014-04-23 10:40:00,
2014-04-23 06:41:00,51.4,51.4,29.80,WNW,295,0.0,0.0,100,0.00,,,0.00,WUHU216WMR968SP,2014-04-23 10:41:00,
2014-04-23 06:42:00,51.4,51.4,29.80,WNW,295,0.0,0.0,100,0.00,,,0.00,WUHU216WMR968SP,2014-04-23 10:42:00,
2014-04-23 06:43:00,51.4,51.4,29.80,WNW,295,0.0,0.0,100,0.00,,,0.00,WUHU216WMR968SP,2014-04-23 10:43:00,
2014-04-23 06:45:00,51.3,51.3,29.80,WNW,295,0.0,0.0,100,0.00,,,0.00,WUHU216WMR968SP,2014-04-23 10:45:00,
2014-04-23 06:46:00,51.3,51.3,29.80,WNW,295,0.0,0.0,100,0.00,,,0.00,WUHU216WMR968SP,2014-04-23 10:46:00,
2014-04-23 06:47:00,51.3,51.3,29.80,WNW,295,0.0,0.0,100,0.00,,,0.00,WUHU216WMR968SP,2014-04-23 10:47:00,
2014-04-23 06:48:00,51.3,51.3,29.80,WNW,295,0.0,0.0,100,0.00,,,0.00,WUHU216WMR968SP,2014-04-23 10:48:00,
2014-04-23 06:50:00,51.3,51.3,29.80,WNW,295,0.0,0.0,100,0.00,,,0.00,WUHU216WMR968SP,2014-04-23 10:50:00,
2014-04-23 06:51:00,51.3,51.3,29.80,WNW,295,0.0,0.0,100,0.00,,,0.00,WUHU216WMR968SP,2014-04-23 10:51:00,
2014-04-23 06:52:00,51.3,51.3,29.80,WNW,295,0.0,0.0,100,0.00,,,0.00,WUHU216WMR968SP,2014-04-23 10:52:00,
2014-04-23 06:53:00,51.1,51.1,29.80,WNW,295,0.0,0.0,100,0.00,,,0.00,WUHU216WMR968SP,2014-04-23 10:53:00,
2014-04-23 06:55:00,51.1,51.1,29.80,WNW,295,0.0,0.0,100,0.00,,,0.00,WUHU216WMR968SP,2014-04-23 10:55:00,
2014-04-23 06:57:00,51.1,51.1,29.80,WNW,295,0.0,0.0,100,0.00,,,0.00,WUHU216WMR968SP,2014-04-23 10:57:00,
2014-04-23 06:59:00,50.9,50.9,29.80,WNW,295,0.0,0.0,100,0.00,,,0.00,WUHU216WMR968SP,2014-04-23 10:59:00,
2014-04-23 07:01:00,50.9,50.9,29.80,WNW,295,0.0,0.0,100,0.00,,,0.00,WUHU216WMR968SP,2014-04-23 11:01:00,
2014-04-23 07:02:00,50.9,50.9,29.80,WNW,295,0.0,0.0,100,0.00,,,0.00,WUHU216WMR968SP,2014-04-23 11:02:00,
2014-04-23 07:03:00,50.9,50.9,29.80,WNW,295,0.0,0.0,100,0.00,,,0.00,WUHU216WMR968SP,2014-04-23 11:03:00,
2014-04-23 07:04:00,50.9,50.9,29.80,WNW,295,0.0,0.0,100,0.00,,,0.00,WUHU216WMR968SP,2014-04-23 11:04:00,
2014-04-23 07:06:00,50.9,50.9,29.80,WNW,295,0.0,0.0,100,0.00,,,0.00,WUHU216WMR968SP,2014-04-23 11:06:00,
2014-04-23 07:07:00,50.9,50.9,29.80,WNW,295,0.0,0.0,100,0.00,,,0.00,WUHU216WMR968SP,2014-04-23 11:07:00,
2014-04-23 07:08:00,50.9,50.9,29.80,WNW,295,0.0,0.0,100,0.00,,,0.00,WUHU216WMR968SP,2014-04-23 11:08:00,
2014-04-23 07:09:00,50.7,50.7,29.80,WNW,295,0.0,0.0,100,0.00,,,0.00,WUHU216WMR968SP,2014-04-23 11:09:00,
2014-04-23 07:11:00,50.7,50.7,29.80,WNW,295,0.0,0.0,100,0.00,,,0.00,WUHU216WMR968SP,2014-04-23 11:11:00,
2014-04-23 07:12:00,50.7,50.7,29.83,WNW,295,0.0,0.0,100,0.00,,,0.00,WUHU216WMR968SP,2014-04-23 11:12:00,
2014-04-23 07:13:00,50.7,50.7,29.83,WNW,295,0.0,0.0,100,0.00,,,0.00,WUHU216WMR968SP,2014-04-23 11:13:00,
2014-04-23 07:15:00,50.7,50.7,29.83,WNW,295,0.0,0.0,100,0.00,,,0.00,WUHU216WMR968SP,2014-04-23 11:15:00,
2014-04-23 07:16:00,50.7,50.7,29.83,WNW,295,0.0,0.0,100,0.00,,,0.00,WUHU216WMR968SP,2014-04-23 11:16:00,
2014-04-23 07:17:00,50.7,50.7,29.83,WNW,295,0.0,0.0,100,0.00,,,0.00,WUHU216WMR968SP,2014-04-23 11:17:00,
2014-04-23 07:19:00,50.7,50.7,29.83,WNW,295,0.0,0.0,100,0.00,,,0.00,WUHU216WMR968SP,2014-04-23 11:19:00,
2014-04-23 07:20:00,50.7,50.7,29.83,WNW,295,0.0,0.0,100,0.00,,,0.00,WUHU216WMR968SP,2014-04-23 11:20:00,
2014-04-23 07:22:00,50.7,50.7,29.83,WNW,295,0.0,0.0,100,0.00,,,0.00,WUHU216WMR968SP,2014-04-23 11:22:00,
2014-04-23 07:24:00,50.9,50.9,29.83,WNW,295,0.0,0.0,100,0.00,,,0.00,WUHU216WMR968SP,2014-04-23 11:24:00,
2014-04-23 07:26:00,50.7,50.7,29.83,WNW,295,0.0,0.0,100,0.00,,,0.00,WUHU216WMR968SP,2014-04-23 11:26:00,
2014-04-23 07:27:00,50.7,50.7,29.83,WNW,295,0.0,0.0,100,0.00,,,0.00,WUHU216WMR968SP,2014-04-23 11:27:00,
2014-04-23 07:28:00,50.7,50.7,29.83,WNW,295,0.0,0.0,100,0.00,,,0.00,WUHU216WMR968SP,2014-04-23 11:28:00,
2014-04-23 07:29:00,50.7,50.7,29.83,WNW,295,0.0,0.0,100,0.00,,,0.00,WUHU216WMR968SP,2014-04-23 11:29:00,
2014-04-23 07:30:00,50.7,50.7,29.83,WNW,295,0.0,0.0,100,0.00,,,0.00,WUHU216WMR968SP,2014-04-23 11:30:00,
2014-04-23 07:31:00,50.7,50.7,29.83,WNW,295,0.0,0.0,100,0.00,,,0.00,WUHU216WMR968SP,2014-04-23 11:31:00,
2014-04-23 07:32:00,50.7,50.7,29.83,WNW,295,0.0,0.0,100,0.00,,,0.00,WUHU216WMR968SP,2014-04-23 11:32:00,
2014-04-23 07:33:00,50.7,50.7,29.83,WNW,295,0.0,0.0,100,0.00,,,0.00,WUHU216WMR968SP,2014-04-23 11:33:00,
2014-04-23 07:34:00,50.7,50.7,29.83,WNW,295,0.0,0.0,100,0.00,,,0.00,WUHU216WMR968SP,2014-04-23 11:34:00,
2014-04-23 07:35:00,50.7,50.7,29.83,WNW,295,0.0,0.0,100,0.00,,,0.00,WUHU216WMR968SP,2014-04-23 11:35:00,
2014-04-23 07:36:00,50.7,50.7,29.83,WNW,295,0.0,0.0,100,0.00,,,0.00,WUHU216WMR968SP,2014-04-23 11:36:00,
2014-04-23 07:37:00,50.7,50.7,29.83,WNW,295,0.0,0.0,100,0.00,,,0.00,WUHU216WMR968SP,2014-04-23 11:37:00,
2014-04-23 07:38:00,50.7,50.7,29.83,WNW,295,0.0,0.0,100,0.00,,,0.00,WUHU216WMR968SP,2014-04-23 11:38:00,
2014-04-23 07:39:00,50.7,50.7,29.83,WNW,295,0.0,0.0,100,0.00,,,0.00,WUHU216WMR968SP,2014-04-23 11:39:00,
2014-04-23 07:40:00,50.7,50.7,29.83,WNW,295,0.0,0.0,100,0.00,,,0.00,WUHU216WMR968SP,2014-04-23 11:40:00,
2014-04-23 07:41:00,50.7,50.7,29.83,WNW,295,0.0,0.0,100,0.00,,,0.00,WUHU216WMR968SP,2014-04-23 11:41:00,
2014-04-23 07:42:00,50.7,50.7,29.83,WNW,295,0.0,0.0,100,0.00,,,0.00,WUHU216WMR968SP,2014-04-23 11:42:00,
2014-04-23 07:43:00,50.7,50.7,29.83,WNW,295,0.0,0.0,100,0.00,,,0.00,WUHU216WMR968SP,2014-04-23 11:43:00,
2014-04-23 07:44:00,50.7,50.7,29.83,WNW,295,0.0,0.0,100,0.00,,,0.00,WUHU216WMR968SP,2014-04-23 11:44:00,
2014-04-23 07:45:00,50.7,50.7,29.83,WNW,295,0.0,0.0,100,0.00,,,0.00,WUHU216WMR968SP,2014-04-23 11:45:00,
2014-04-23 07:47:00,50.7,50.7,29.83,WNW,295,0.0,0.0,100,0.00,,,0.00,WUHU216WMR968SP,2014-04-23 11:47:00,
2014-04-23 07:48:00,50.7,50.7,29.83,WNW,295,0.0,0.0,100,0.00,,,0.00,WUHU216WMR968SP,2014-04-23 11:48:00,
2014-04-23 07:50:00,50.9,50.9,29.83,WNW,295,0.0,0.0,100,0.00,,,0.00,WUHU216WMR968SP,2014-04-23 11:50:00,
2014-04-23 07:52:00,50.9,50.9,29.83,WNW,295,0.0,0.0,100,0.00,,,0.00,WUHU216WMR968SP,2014-04-23 11:52:00,
2014-04-23 07:53:00,50.9,50.9,29.83,WNW,295,0.0,0.0,100,0.00,,,0.00,WUHU216WMR968SP,2014-04-23 11:53:00,
2014-04-23 07:55:00,51.1,51.1,29.83,WNW,295,0.0,0.0,100,0.00,,,0.00,WUHU216WMR968SP,2014-04-23 11:55:00,
2014-04-23 07:56:00,51.1,51.1,29.83,WNW,295,0.0,0.0,100,0.00,,,0.00,WUHU216WMR968SP,2014-04-23 11:56:00,
2014-04-23 07:57:00,51.1,51.1,29.86,WNW,295,0.0,0.0,100,0.00,,,0.00,WUHU216WMR968SP,2014-04-23 11:57:00,
2014-04-23 07:59:00,51.4,51.4,29.86,WNW,295,0.0,0.0,100,0.00,,,0.00,WUHU216WMR968SP,2014-04-23 11:59:00,
2014-04-23 08:00:00,51.4,51.4,29.86,WNW,295,0.0,0.0,100,0.00,,,0.00,WUHU216WMR968SP,2014-04-23 12:00:00,
2014-04-23 08:01:00,51.4,51.4,29.86,WNW,295,0.0,0.0,100,0.00,,,0.00,WUHU216WMR968SP,2014-04-23 12:01:00,
2014-04-23 08:03:00,51.6,51.6,29.86,WNW,295,0.0,0.0,100,0.00,,,0.00,WUHU216WMR968SP,2014-04-23 12:03:00,
2014-04-23 08:04:00,51.8,51.2,29.86,WNW,295,0.0,0.0,98,0.00,,,0.00,WUHU216WMR968SP,2014-04-23 12:04:00,
2014-04-23 08:06:00,52.0,50.7,29.86,WNW,295,0.0,0.0,95,0.00,,,0.00,WUHU216WMR968SP,2014-04-23 12:06:00,
2014-04-23 08:08:00,52.2,48.7,29.86,WNW,295,0.0,0.0,88,0.00,,,0.00,WUHU216WMR968SP,2014-04-23 12:08:00,
2014-04-23 08:09:00,52.3,50.2,29.86,WNW,295,0.0,0.0,93,0.00,,,0.00,WUHU216WMR968SP,2014-04-23 12:09:00,
2014-04-23 08:11:00,52.7,51.4,29.86,WNW,295,0.0,0.0,95,0.00,,,0.00,WUHU216WMR968SP,2014-04-23 12:11:00,
2014-04-23 08:13:00,53.1,51.0,29.86,WNW,295,0.0,0.0,93,0.00,,,0.00,WUHU216WMR968SP,2014-04-23 12:13:00,
2014-04-23 08:14:00,53.2,51.1,29.86,WNW,295,0.0,0.0,93,0.00,,,0.00,WUHU216WMR968SP,2014-04-23 12:14:00,
2014-04-23 08:16:00,53.6,49.3,29.86,WNW,295,0.0,0.0,85,0.00,,,0.00,WUHU216WMR968SP,2014-04-23 12:16:00,
2014-04-23 08:18:00,53.8,48.8,29.86,WNW,295,0.0,0.0,83,0.00,,,0.00,WUHU216WMR968SP,2014-04-23 12:18:00,
2014-04-23 08:20:00,54.0,44.8,29.86,WNW,295,0.0,0.0,71,0.00,,,0.00,WUHU216WMR968SP,2014-04-23 12:20:00,
2014-04-23 08:21:00,54.3,46.0,29.86,WNW,295,0.0,0.0,73,0.00,,,0.00,WUHU216WMR968SP,2014-04-23 12:21:00,
2014-04-23 08:22:00,54.3,46.0,29.86,WNW,295,0.0,0.0,73,0.00,,,0.00,WUHU216WMR968SP,2014-04-23 12:22:00,
2014-04-23 08:23:00,54.5,45.3,29.86,WNW,295,0.0,0.0,71,0.00,,,0.00,WUHU216WMR968SP,2014-04-23 12:23:00,
2014-04-23 08:24:00,54.5,45.3,29.86,WNW,295,0.0,0.0,71,0.00,,,0.00,WUHU216WMR968SP,2014-04-23 12:24:00,
2014-04-23 08:25:00,54.5,44.3,29.86,WNW,295,0.0,0.0,68,0.00,,,0.00,WUHU216WMR968SP,2014-04-23 12:25:00,
2014-04-23 08:26:00,54.7,44.5,29.86,South,191,0.0,4.6,68,0.00,,,0.00,WUHU216WMR968SP,2014-04-23 12:26:00,
2014-04-23 08:27:00,54.7,44.5,29.86,South,191,0.0,4.6,68,0.00,,,0.00,WUHU216WMR968SP,2014-04-23 12:27:00,
2014-04-23 08:29:00,55.0,46.1,29.86,WSW,253,10.1,10.1,72,0.00,,,0.00,WUHU216WMR968SP,2014-04-23 12:29:00,
2014-04-23 08:30:00,55.2,36.0,29.86,West,262,0.0,10.1,48,0.00,,,0.00,WUHU216WMR968SP,2014-04-23 12:30:00,
2014-04-23 08:32:00,55.4,44.6,29.86,WNW,294,7.2,10.1,67,0.00,,,0.00,WUHU216WMR968SP,2014-04-23 12:32:00,
2014-04-23 08:33:00,55.6,41.3,29.86,WNW,294,0.0,10.1,58,0.00,,,0.00,WUHU216WMR968SP,2014-04-23 12:33:00,
2014-04-23 08:34:00,55.8,44.2,29.86,South,169,7.2,10.1,65,0.00,,,0.00,WUHU216WMR968SP,2014-04-23 12:34:00,
2014-04-23 08:35:00,55.9,35.3,29.86,West,274,0.0,10.1,46,0.00,,,0.00,WUHU216WMR968SP,2014-04-23 12:35:00,
2014-04-23 08:38:00,56.1,35.5,29.86,West,274,0.0,10.1,46,0.00,,,0.00,WUHU216WMR968SP,2014-04-23 12:38:00,
2014-04-23 08:39:00,56.1,35.5,29.86,West,274,0.0,10.1,46,0.00,,,0.00,WUHU216WMR968SP,2014-04-23 12:39:00,
2014-04-23 08:40:00,56.3,39.6,29.86,West,274,0.0,8.8,53,0.00,,,0.00,WUHU216WMR968SP,2014-04-23 12:40:00,
2014-04-23 08:43:00,56.3,35.7,29.86,West,274,0.0,7.2,46,0.00,,,0.00,WUHU216WMR968SP,2014-04-23 12:43:00,
2014-04-23 08:44:00,56.3,32.7,29.86,WSW,250,0.0,7.2,41,0.00,,,0.00,WUHU216WMR968SP,2014-04-23 12:44:00,
2014-04-23 08:45:00,56.3,35.7,29.86,WSW,250,0.0,7.2,46,0.00,,,0.00,WUHU216WMR968SP,2014-04-23 12:45:00,
2014-04-23 08:48:00,56.5,35.8,29.86,SSW,197,7.2,7.2,46,0.00,,,0.00,WUHU216WMR968SP,2014-04-23 12:48:00,
2014-04-23 08:49:00,56.5,35.8,29.86,West,270,0.0,7.2,46,0.00,,,0.00,WUHU216WMR968SP,2014-04-23 12:49:00,
2014-04-23 08:51:00,56.3,32.7,29.86,West,269,0.0,7.2,41,0.00,,,0.00,WUHU216WMR968SP,2014-04-23 12:51:00,
2014-04-23 08:53:00,56.5,32.9,29.86,WSW,253,0.0,7.2,41,0.00,,,0.00,WUHU216WMR968SP,2014-04-23 12:53:00,
2014-04-23 08:54:00,56.5,35.8,29.86,WSW,253,0.0,7.2,46,0.00,,,0.00,WUHU216WMR968SP,2014-04-23 12:54:00,
2014-04-23 08:56:00,56.7,36.0,29.86,WSW,253,0.0,7.2,46,0.00,,,0.00,WUHU216WMR968SP,2014-04-23 12:56:00,
2014-04-23 08:58:00,56.7,33.1,29.86,WSW,253,7.2,7.2,41,0.00,,,0.00,WUHU216WMR968SP,2014-04-23 12:58:00,
2014-04-23 08:59:00,56.8,33.2,29.86,WSW,253,7.2,7.2,41,0.00,,,0.00,WUHU216WMR968SP,2014-04-23 12:59:00,
2014-04-23 09:00:00,56.8,33.2,29.86,WSW,253,7.2,7.2,41,0.00,,,0.00,WUHU216WMR968SP,2014-04-23 13:00:00,
2014-04-23 09:01:00,56.8,33.2,29.86,West,263,8.8,8.8,41,0.00,,,0.00,WUHU216WMR968SP,2014-04-23 13:01:00,
2014-04-23 09:03:00,57.2,32.0,29.86,NW,305,7.2,10.1,39,0.00,,,0.00,WUHU216WMR968SP,2014-04-23 13:03:00,
2014-04-23 09:05:00,57.2,32.0,29.86,NW,305,7.2,10.1,39,0.00,,,0.00,WUHU216WMR968SP,2014-04-23 13:05:00,
2014-04-23 09:07:00,57.6,32.3,29.86,WNW,298,10.1,10.1,39,0.00,,,0.00,WUHU216WMR968SP,2014-04-23 13:07:00,
2014-04-23 09:08:00,57.6,32.3,29.86,WNW,298,7.2,10.1,39,0.00,,,0.00,WUHU216WMR968SP,2014-04-23 13:08:00,
2014-04-23 09:10:00,57.7,32.4,29.86,WNW,298,0.0,10.1,39,0.00,,,0.00,WUHU216WMR968SP,2014-04-23 13:10:00,
2014-04-23 09:12:00,57.9,32.6,29.86,West,273,0.0,10.1,39,0.00,,,0.00,WUHU216WMR968SP,2014-04-23 13:12:00,
2014-04-23 09:13:00,57.9,32.6,29.86,NW,306,8.8,10.1,39,0.00,,,0.00,WUHU216WMR968SP,2014-04-23 13:13:00,
2014-04-23 09:14:00,58.1,32.8,29.86,NW,306,8.8,10.1,39,0.00,,,0.00,WUHU216WMR968SP,2014-04-23 13:14:00,
2014-04-23 09:15:00,58.1,32.8,29.86,NW,306,10.1,11.7,39,0.00,,,0.00,WUHU216WMR968SP,2014-04-23 13:15:00,
2014-04-23 09:16:00,58.1,32.8,29.86,NW,306,0.0,11.7,39,0.00,,,0.00,WUHU216WMR968SP,2014-04-23 13:16:00,
2014-04-23 09:18:00,58.3,32.9,29.86,NW,306,7.2,11.7,39,0.00,,,0.00,WUHU216WMR968SP,2014-04-23 13:18:00,
2014-04-23 09:19:00,58.5,33.1,29.86,NW,306,0.0,11.7,39,0.00,,,0.00,WUHU216WMR968SP,2014-04-23 13:19:00,
2014-04-23 09:20:00,58.5,33.1,29.86,WNW,300,0.0,11.7,39,0.00,,,0.00,WUHU216WMR968SP,2014-04-23 13:20:00,
2014-04-23 09:21:00,58.5,33.1,29.86,WNW,297,11.7,11.7,39,0.00,,,0.00,WUHU216WMR968SP,2014-04-23 13:21:00,
2014-04-23 09:23:00,58.6,33.2,29.86,WNW,297,0.0,11.7,39,0.00,,,0.00,WUHU216WMR968SP,2014-04-23 13:23:00,
2014-04-23 09:24:00,58.8,33.4,29.86,WNW,297,0.0,11.7,39,0.00,,,0.00,WUHU216WMR968SP,2014-04-23 13:24:00,
2014-04-23 09:25:00,58.8,33.4,29.86,WNW,294,7.2,11.7,39,0.00,,,0.00,WUHU216WMR968SP,2014-04-23 13:25:00,
2014-04-23 09:26:00,58.8,33.4,29.86,WNW,294,8.8,11.7,39,0.00,,,0.00,WUHU216WMR968SP,2014-04-23 13:26:00,
2014-04-23 09:28:00,59.0,33.6,29.86,NNW,330,10.1,11.7,39,0.00,,,0.00,WUHU216WMR968SP,2014-04-23 13:28:00,
2014-04-23 09:29:00,59.2,33.8,29.86,NNW,330,10.1,11.7,39,0.00,,,0.00,WUHU216WMR968SP,2014-04-23 13:29:00,
2014-04-23 09:30:00,59.2,30.3,29.86,WSW,251,10.1,11.7,34,0.00,,,0.00,WUHU216WMR968SP,2014-04-23 13:30:00,
2014-04-23 09:31:00,59.4,33.9,29.86,WNW,286,10.1,11.7,39,0.00,,,0.00,WUHU216WMR968SP,2014-04-23 13:31:00,
2014-04-23 09:33:00,59.5,34.0,29.86,West,278,10.1,10.1,39,0.00,,,0.00,WUHU216WMR968SP,2014-04-23 13:33:00,
2014-04-23 09:34:00,59.7,30.7,29.86,West,278,7.2,10.1,34,0.00,,,0.00,WUHU216WMR968SP,2014-04-23 13:34:00,
2014-04-23 09:35:00,59.7,30.7,29.86,SW,235,11.7,11.7,34,0.00,,,0.00,WUHU216WMR968SP,2014-04-23 13:35:00,
2014-04-23 09:36:00,59.9,34.4,29.86,WNW,298,11.7,11.7,39,0.00,,,0.00,WUHU216WMR968SP,2014-04-23 13:36:00,
2014-04-23 09:39:00,60.3,31.3,29.86,WNW,285,13.0,13.0,34,0.00,,,0.00,WUHU216WMR968SP,2014-04-23 13:39:00,
2014-04-23 09:40:00,60.4,31.4,29.86,WNW,297,8.8,13.0,34,0.00,,,0.00,WUHU216WMR968SP,2014-04-23 13:40:00,
2014-04-23 09:41:00,60.4,31.4,29.86,WNW,285,13.0,13.0,34,0.00,,,0.00,WUHU216WMR968SP,2014-04-23 13:41:00,
2014-04-23 09:44:00,60.6,31.5,29.86,WNW,288,11.7,13.0,34,0.00,,,0.00,WUHU216WMR968SP,2014-04-23 13:44:00,
2014-04-23 09:45:00,60.8,29.8,29.86,WNW,288,7.2,13.0,31,0.00,,,0.00,WUHU216WMR968SP,2014-04-23 13:45:00,
2014-04-23 09:46:00,60.8,29.8,29.86,WNW,289,0.0,13.0,31,0.00,,,0.00,WUHU216WMR968SP,2014-04-23 13:46:00,
2014-04-23 09:47:00,61.0,30.0,29.86,West,267,13.0,13.0,31,0.00,,,0.00,WUHU216WMR968SP,2014-04-23 13:47:00,
2014-04-23 09:49:00,61.2,30.2,29.86,NW,307,11.7,13.0,31,0.00,,,0.00,WUHU216WMR968SP,2014-04-23 13:49:00,
2014-04-23 09:50:00,61.3,30.3,29.86,NW,307,0.0,13.0,31,0.00,,,0.00,WUHU216WMR968SP,2014-04-23 13:50:00,
2014-04-23 09:51:00,61.3,30.3,29.86,NW,307,0.0,13.0,31,0.00,,,0.00,WUHU216WMR968SP,2014-04-23 13:51:00,
2014-04-23 09:53:00,61.5,30.4,29.86,NNE,14,10.1,13.0,31,0.00,,,0.00,WUHU216WMR968SP,2014-04-23 13:53:00,
2014-04-23 09:54:00,61.5,30.4,29.86,NNW,337,8.8,13.0,31,0.00,,,0.00,WUHU216WMR968SP,2014-04-23 13:54:00,
2014-04-23 09:55:00,61.7,30.6,29.86,NNW,331,7.2,13.0,31,0.00,,,0.00,WUHU216WMR968SP,2014-04-23 13:55:00,
2014-04-23 09:56:00,61.7,30.6,29.86,NNW,331,7.2,13.0,31,0.00,,,0.00,WUHU216WMR968SP,2014-04-23 13:56:00,
2014-04-23 09:58:00,61.9,30.8,29.89,East,80,11.7,11.7,31,0.00,,,0.00,WUHU216WMR968SP,2014-04-23 13:58:00,
2014-04-23 09:59:00,61.9,30.8,29.89,NW,322,7.2,11.7,31,0.00,,,0.00,WUHU216WMR968SP,2014-04-23 13:59:00,
2014-04-23 10:01:00,62.1,31.0,29.89,NW,322,7.2,11.7,31,0.00,,,0.00,WUHU216WMR968SP,2014-04-23 14:01:00,
2014-04-23 10:03:00,62.2,31.1,29.89,WNW,283,10.1,11.7,31,0.00,,,0.00,WUHU216WMR968SP,2014-04-23 14:03:00,
2014-04-23 10:04:00,62.2,31.1,29.89,WNW,292,13.0,13.0,31,0.00,,,0.00,WUHU216WMR968SP,2014-04-23 14:04:00,
2014-04-23 10:05:00,62.2,31.1,29.89,WNW,286,8.8,13.0,31,0.00,,,0.00,WUHU216WMR968SP,2014-04-23 14:05:00,
2014-04-23 10:06:00,62.4,31.2,29.89,WNW,297,13.0,13.0,31,0.00,,,0.00,WUHU216WMR968SP,2014-04-23 14:06:00,
2014-04-23 10:09:00,62.6,31.4,29.89,West,278,7.2,13.0,31,0.00,,,0.00,WUHU216WMR968SP,2014-04-23 14:09:00,
2014-04-23 10:10:00,62.6,31.4,29.89,West,263,10.1,13.0,31,0.00,,,0.00,WUHU216WMR968SP,2014-04-23 14:10:00,
2014-04-23 10:12:00,62.8,31.6,29.89,West,279,10.1,13.0,31,0.00,,,0.00,WUHU216WMR968SP,2014-04-23 14:12:00,
2014-04-23 10:14:00,62.8,31.6,29.89,North,357,8.8,13.0,31,0.00,,,0.00,WUHU216WMR968SP,2014-04-23 14:14:00,
2014-04-23 10:15:00,63.0,31.8,29.89,WNW,284,10.1,13.0,31,0.00,,,0.00,WUHU216WMR968SP,2014-04-23 14:15:00,
2014-04-23 10:16:00,63.0,31.8,29.89,WNW,290,13.0,13.0,31,0.00,,,0.00,WUHU216WMR968SP,2014-04-23 14:16:00,
2014-04-23 10:17:00,63.0,31.8,29.89,West,273,15.9,15.9,31,0.00,,,0.00,WUHU216WMR968SP,2014-04-23 14:17:00,
2014-04-23 10:19:00,63.0,31.8,29.89,West,280,8.8,15.9,31,0.00,,,0.00,WUHU216WMR968SP,2014-04-23 14:19:00,
2014-04-23 10:20:00,63.0,31.8,29.89,WSW,253,8.8,15.9,31,0.00,,,0.00,WUHU216WMR968SP,2014-04-23 14:20:00,
2014-04-23 10:21:00,63.1,31.8,29.89,WNW,283,8.8,15.9,31,0.00,,,0.00,WUHU216WMR968SP,2014-04-23 14:21:00,
2014-04-23 10:22:00,63.0,31.8,29.89,SSE,163,8.8,15.9,31,0.00,,,0.00,WUHU216WMR968SP,2014-04-23 14:22:00,
2014-04-23 10:23:00,63.1,31.8,29.89,SSE,163,7.2,15.9,31,0.00,,,0.00,WUHU216WMR968SP,2014-04-23 14:23:00,
2014-04-23 10:25:00,63.1,31.8,29.89,WNW,298,7.2,15.9,31,0.00,,,0.00,WUHU216WMR968SP,2014-04-23 14:25:00,
2014-04-23 10:26:00,63.1,31.8,29.89,SE,129,13.0,15.9,31,0.00,,,0.00,WUHU216WMR968SP,2014-04-23 14:26:00,
2014-04-23 10:27:00,63.1,31.8,29.89,SSW,212,10.1,15.9,31,0.00,,,0.00,WUHU216WMR968SP,2014-04-23 14:27:00,
2014-04-23 10:28:00,63.1,31.8,29.89,West,280,11.7,14.6,31,0.00,,,0.00,WUHU216WMR968SP,2014-04-23 14:28:00,
2014-04-23 10:30:00,63.3,32.0,29.89,WNW,299,11.7,13.0,31,0.00,,,0.00,WUHU216WMR968SP,2014-04-23 14:30:00,
2014-04-23 10:31:00,63.3,32.0,29.89,NW,312,10.1,13.0,31,0.00,,,0.00,WUHU216WMR968SP,2014-04-23 14:31:00,
2014-04-23 10:32:00,63.5,32.2,29.89,West,266,8.8,13.0,31,0.00,,,0.00,WUHU216WMR968SP,2014-04-23 14:32:00,
2014-04-23 10:33:00,63.5,32.2,29.89,WNW,292,8.8,13.0,31,0.00,,,0.00,WUHU216WMR968SP,2014-04-23 14:33:00,
2014-04-23 10:35:00,63.5,32.2,29.89,WNW,285,14.6,14.6,31,0.00,,,0.00,WUHU216WMR968SP,2014-04-23 14:35:00,
2014-04-23 10:36:00,63.7,32.4,29.89,West,276,13.0,14.6,31,0.00,,,0.00,WUHU216WMR968SP,2014-04-23 14:36:00,
2014-04-23 10:38:00,63.7,32.4,29.89,NNW,332,8.8,14.6,31,0.00,,,0.00,WUHU216WMR968SP,2014-04-23 14:38:00,
2014-04-23 10:39:00,63.7,32.4,29.89,NNW,332,0.0,14.6,31,0.00,,,0.00,WUHU216WMR968SP,2014-04-23 14:39:00,
2014-04-23 10:40:00,63.9,32.5,29.89,NNW,332,0.0,14.6,31,0.00,,,0.00,WUHU216WMR968SP,2014-04-23 14:40:00,
2014-04-23 10:41:00,63.9,32.5,29.89,WNW,293,8.8,14.6,31,0.00,,,0.00,WUHU216WMR968SP,2014-04-23 14:41:00,
2014-04-23 10:42:00,63.9,32.5,29.89,WNW,300,0.0,14.6,31,0.00,,,0.00,WUHU216WMR968SP,2014-04-23 14:42:00,
2014-04-23 10:43:00,63.9,32.5,29.89,WNW,300,0.0,14.6,31,0.00,,,0.00,WUHU216WMR968SP,2014-04-23 14:43:00,
2014-04-23 10:44:00,64.0,32.6,29.89,WNW,301,0.0,14.6,31,0.00,,,0.00,WUHU216WMR968SP,2014-04-23 14:44:00,
2014-04-23 10:45:00,64.0,32.6,29.89,WNW,300,0.0,14.6,31,0.00,,,0.00,WUHU216WMR968SP,2014-04-23 14:45:00,
2014-04-23 10:46:00,64.0,32.6,29.89,WNW,287,7.2,13.0,31,0.00,,,0.00,WUHU216WMR968SP,2014-04-23 14:46:00,
2014-04-23 10:48:00,64.2,32.8,29.89,WSW,237,0.0,10.1,31,0.00,,,0.00,WUHU216WMR968SP,2014-04-23 14:48:00,
2014-04-23 10:49:00,64.4,30.9,29.89,WNW,297,7.2,10.1,29,0.00,,,0.00,WUHU216WMR968SP,2014-04-23 14:49:00,
2014-04-23 10:50:00,64.4,30.9,29.89,West,270,7.2,10.1,29,0.00,,,0.00,WUHU216WMR968SP,2014-04-23 14:50:00,
2014-04-23 10:52:00,64.6,31.1,29.89,West,279,0.0,10.1,29,0.00,,,0.00,WUHU216WMR968SP,2014-04-23 14:52:00,
2014-04-23 10:53:00,64.6,31.1,29.89,WNW,287,0.0,10.1,29,0.00,,,0.00,WUHU216WMR968SP,2014-04-23 14:53:00,
2014-04-23 10:55:00,64.8,37.1,29.89,SE,146,0.0,10.1,36,0.00,,,0.00,WUHU216WMR968SP,2014-04-23 14:55:00,
2014-04-23 10:56:00,64.8,37.1,29.89,West,280,8.8,10.1,36,0.00,,,0.00,WUHU216WMR968SP,2014-04-23 14:56:00,
2014-04-23 10:57:00,64.9,37.1,29.89,West,267,11.7,11.7,36,0.00,,,0.00,WUHU216WMR968SP,2014-04-23 14:57:00,
2014-04-23 11:00:00,65.1,37.3,29.89,WNW,285,10.1,11.7,36,0.00,,,0.00,WUHU216WMR968SP,2014-04-23 15:00:00,
2014-04-23 11:01:00,65.1,31.5,29.89,WNW,282,13.0,13.0,29,0.00,,,0.00,WUHU216WMR968SP,2014-04-23 15:01:00,
2014-04-23 11:02:00,65.3,31.7,29.89,West,281,13.0,13.0,29,0.00,,,0.00,WUHU216WMR968SP,2014-04-23 15:02:00,
2014-04-23 11:05:00,65.5,37.7,29.89,NNW,337,8.8,14.6,36,0.00,,,0.00,WUHU216WMR968SP,2014-04-23 15:05:00,
2014-04-23 11:06:00,65.5,37.7,29.89,NNW,337,7.2,14.6,36,0.00,,,0.00,WUHU216WMR968SP,2014-04-23 15:06:00,
2014-04-23 11:07:00,65.7,37.9,29.89,West,278,7.2,14.6,36,0.00,,,0.00,WUHU216WMR968SP,2014-04-23 15:07:00,
2014-04-23 11:11:00,66.0,38.1,29.89,WNW,287,8.8,15.9,36,0.00,,,0.00,WUHU216WMR968SP,2014-04-23 15:11:00,
2014-04-23 11:12:00,66.2,36.5,29.89,WNW,288,8.8,15.9,34,0.00,,,0.00,WUHU216WMR968SP,2014-04-23 15:12:00,
2014-04-23 11:13:00,66.4,36.7,29.89,WNW,288,0.0,15.9,34,0.00,,,0.00,WUHU216WMR968SP,2014-04-23 15:13:00,
2014-04-23 11:16:00,66.7,36.9,29.89,WNW,282,11.7,15.9,34,0.00,,,0.00,WUHU216WMR968SP,2014-04-23 15:16:00,
2014-04-23 11:17:00,66.7,36.9,29.89,WNW,282,10.1,15.9,34,0.00,,,0.00,WUHU216WMR968SP,2014-04-23 15:17:00,
2014-04-23 11:18:00,66.9,37.1,29.89,West,281,11.7,15.9,34,0.00,,,0.00,WUHU216WMR968SP,2014-04-23 15:18:00,
2014-04-23 11:24:00,67.3,37.4,29.89,SE,127,10.1,15.9,34,0.00,,,0.00,WUHU216WMR968SP,2014-04-23 15:24:00,
2014-04-23 11:25:00,67.3,37.4,29.89,SE,127,10.1,15.9,34,0.00,,,0.00,WUHU216WMR968SP,2014-04-23 15:25:00,
2014-04-23 11:29:00,68.0,38.1,29.89,WSW,241,0.0,15.9,34,0.00,,,0.00,WUHU216WMR968SP,2014-04-23 15:29:00,
2014-04-23 11:30:00,68.0,38.1,29.89,WSW,239,7.2,14.6,34,0.00,,,0.00,WUHU216WMR968SP,2014-04-23 15:30:00,
2014-04-23 11:35:00,68.4,38.4,29.89,NE,37,7.2,11.7,34,0.00,,,0.00,WUHU216WMR968SP,2014-04-23 15:35:00,
2014-04-23 11:36:00,68.5,38.5,29.89,WSW,247,7.2,11.7,34,0.00,,,0.00,WUHU216WMR968SP,2014-04-23 15:36:00,
2014-04-23 11:40:00,68.4,38.4,29.89,NW,309,13.0,13.0,34,0.00,,,0.00,WUHU216WMR968SP,2014-04-23 15:40:00,
2014-04-23 11:41:00,68.4,38.4,29.89,South,180,11.7,13.0,34,0.00,,,0.00,WUHU216WMR968SP,2014-04-23 15:41:00,
2014-04-23 11:42:00,68.4,38.4,29.89,WNW,283,11.7,13.0,34,0.00,,,0.00,WUHU216WMR968SP,2014-04-23 15:42:00,
2014-04-23 11:45:00,68.2,38.2,29.89,WNW,287,13.0,13.0,34,0.00,,,0.00,WUHU216WMR968SP,2014-04-23 15:45:00,
2014-04-23 11:46:00,68.2,38.2,29.89,WNW,292,13.0,13.0,34,0.00,,,0.00,WUHU216WMR968SP,2014-04-23 15:46:00,
2014-04-23 11:47:00,68.2,38.2,29.89,WNW,285,13.0,13.0,34,0.00,,,0.00,WUHU216WMR968SP,2014-04-23 15:47:00,
2014-04-23 11:50:00,68.2,38.2,29.89,West,277,15.9,15.9,34,0.00,,,0.00,WUHU216WMR968SP,2014-04-23 15:50:00,
2014-04-23 11:51:00,68.4,38.4,29.89,WNW,285,11.7,15.9,34,0.00,,,0.00,WUHU216WMR968SP,2014-04-23 15:51:00,
2014-04-23 11:52:00,68.4,38.4,29.89,West,268,8.8,15.9,34,0.00,,,0.00,WUHU216WMR968SP,2014-04-23 15:52:00,
2014-04-23 11:55:00,68.4,38.4,29.89,West,279,10.1,15.9,34,0.00,,,0.00,WUHU216WMR968SP,2014-04-23 15:55:00,
2014-04-23 11:57:00,68.5,38.5,29.89,West,261,13.0,15.9,34,0.00,,,0.00,WUHU216WMR968SP,2014-04-23 15:57:00,
2014-04-23 12:00:00,68.7,38.7,29.89,WSW,242,10.1,15.9,34,0.00,,,0.00,WUHU216WMR968SP,2014-04-23 16:00:00,
2014-04-23 12:01:00,68.5,38.5,29.89,West,278,13.0,13.0,34,0.00,,,0.00,WUHU216WMR968SP,2014-04-23 16:01:00,
2014-04-23 12:02:00,68.7,38.7,29.89,West,278,14.6,14.6,34,0.00,,,0.00,WUHU216WMR968SP,2014-04-23 16:02:00,
2014-04-23 12:03:00,68.7,38.7,29.89,West,278,11.7,14.6,34,0.00,,,0.00,WUHU216WMR968SP,2014-04-23 16:03:00,
2014-04-23 12:05:00,68.5,38.5,29.89,WNW,301,7.2,14.6,34,0.00,,,0.00,WUHU216WMR968SP,2014-04-23 16:05:00,
2014-04-23 12:06:00,68.5,38.5,29.89,WNW,301,0.0,14.6,34,0.00,,,0.00,WUHU216WMR968SP,2014-04-23 16:06:00,
2014-04-23 12:07:00,68.7,38.7,29.89,West,281,11.7,14.6,34,0.00,,,0.00,WUHU216WMR968SP,2014-04-23 16:07:00,
2014-04-23 12:08:00,68.7,38.7,29.89,West,281,10.1,14.6,34,0.00,,,0.00,WUHU216WMR968SP,2014-04-23 16:08:00,
2014-04-23 12:10:00,68.9,38.9,29.89,ESE,103,10.1,14.6,34,0.00,,,0.00,WUHU216WMR968SP,2014-04-23 16:10:00,
2014-04-23 12:11:00,68.9,38.9,29.89,WNW,299,10.1,14.6,34,0.00,,,0.00,WUHU216WMR968SP,2014-04-23 16:11:00,
2014-04-23 12:12:00,68.9,38.9,29.89,WNW,299,11.7,13.0,34,0.00,,,0.00,WUHU216WMR968SP,2014-04-23 16:12:00,
2014-04-23 12:13:00,68.9,38.9,29.89,West,266,13.0,13.0,34,0.00,,,0.00,WUHU216WMR968SP,2014-04-23 16:13:00,
2014-04-23 12:15:00,69.1,39.0,29.89,West,279,11.7,13.0,34,0.00,,,0.00,WUHU216WMR968SP,2014-04-23 16:15:00,
2014-04-23 12:16:00,69.1,39.0,29.89,WNW,283,11.7,13.0,34,0.00,,,0.00,WUHU216WMR968SP,2014-04-23 16:16:00,
2014-04-23 12:18:00,69.4,39.3,29.89,NW,312,8.8,14.6,34,0.00,,,0.00,WUHU216WMR968SP,2014-04-23 16:18:00,
2014-04-23 12:20:00,69.8,39.7,29.89,West,268,8.8,14.6,34,0.00,,,0.00,WUHU216WMR968SP,2014-04-23 16:20:00,
2014-04-23 12:21:00,69.8,39.7,29.89,WSW,244,10.1,14.6,34,0.00,,,0.00,WUHU216WMR968SP,2014-04-23 16:21:00,
2014-04-23 12:23:00,70.0,39.8,29.89,West,281,8.8,14.6,34,0.00,,,0.00,WUHU216WMR968SP,2014-04-23 16:23:00,
2014-04-23 12:25:00,70.0,39.8,29.89,North,0,0.0,14.6,34,0.00,,,0.00,WUHU216WMR968SP,2014-04-23 16:25:00,
2014-04-23 12:26:00,70.0,39.8,29.89,NW,315,0.0,14.6,34,0.00,,,0.00,WUHU216WMR968SP,2014-04-23 16:26:00,
2014-04-23 12:28:00,70.0,39.8,29.89,NNE,24,8.8,13.0,34,0.00,,,0.00,WUHU216WMR968SP,2014-04-23 16:28:00,
2014-04-23 12:30:00,70.2,40.0,29.89,NNE,23,8.8,13.0,34,0.00,,,0.00,WUHU216WMR968SP,2014-04-23 16:30:00,
2014-04-23 12:31:00,70.2,40.0,29.89,NNE,14,7.2,13.0,34,0.00,,,0.00,WUHU216WMR968SP,2014-04-23 16:31:00,
2014-04-23 12:32:00,70.3,40.1,29.89,WNW,290,8.8,13.0,34,0.00,,,0.00,WUHU216WMR968SP,2014-04-23 16:32:00,
2014-04-23 12:34:00,70.3,40.1,29.89,WNW,294,15.9,15.9,34,0.00,,,0.00,WUHU216WMR968SP,2014-04-23 16:34:00,
2014-04-23 12:35:00,70.3,40.1,29.89,WNW,301,13.0,15.9,34,0.00,,,0.00,WUHU216WMR968SP,2014-04-23 16:35:00,
2014-04-23 12:37:00,70.2,40.0,29.89,WNW,284,11.7,15.9,34,0.00,,,0.00,WUHU216WMR968SP,2014-04-23 16:37:00,
2014-04-23 12:38:00,70.2,40.0,29.89,West,273,11.7,15.9,34,0.00,,,0.00,WUHU216WMR968SP,2014-04-23 16:38:00,
2014-04-23 12:39:00,70.2,40.0,29.89,West,277,13.0,17.6,34,0.00,,,0.00,WUHU216WMR968SP,2014-04-23 16:39:00,
2014-04-23 12:40:00,70.2,40.0,29.89,West,279,11.7,17.6,34,0.00,,,0.00,WUHU216WMR968SP,2014-04-23 16:40:00,
2014-04-23 12:41:00,70.2,40.0,29.89,West,279,10.1,17.6,34,0.00,,,0.00,WUHU216WMR968SP,2014-04-23 16:41:00,
2014-04-23 12:42:00,70.0,39.8,29.89,WNW,293,10.1,17.6,34,0.00,,,0.00,WUHU216WMR968SP,2014-04-23 16:42:00,
2014-04-23 12:43:00,70.0,39.8,29.89,WNW,284,11.7,17.6,34,0.00,,,0.00,WUHU216WMR968SP,2014-04-23 16:43:00,
2014-04-23 12:44:00,70.0,39.8,29.89,North,353,17.6,17.6,34,0.00,,,0.00,WUHU216WMR968SP,2014-04-23 16:44:00,
2014-04-23 12:46:00,69.8,39.7,29.89,NW,310,7.2,17.6,34,0.00,,,0.00,WUHU216WMR968SP,2014-04-23 16:46:00,
2014-04-23 12:47:00,70.0,39.8,29.89,WNW,297,10.1,17.6,34,0.00,,,0.00,WUHU216WMR968SP,2014-04-23 16:47:00,
2014-04-23 12:48:00,70.0,39.8,29.89,WNW,297,8.8,17.6,34,0.00,,,0.00,WUHU216WMR968SP,2014-04-23 16:48:00,
2014-04-23 12:49:00,70.2,40.0,29.89,WNW,297,0.0,17.6,34,0.00,,,0.00,WUHU216WMR968SP,2014-04-23 16:49:00,
2014-04-23 12:51:00,70.5,40.3,29.89,NW,318,10.1,17.6,34,0.00,,,0.00,WUHU216WMR968SP,2014-04-23 16:51:00,
2014-04-23 12:52:00,70.5,40.3,29.89,WNW,297,13.0,17.6,34,0.00,,,0.00,WUHU216WMR968SP,2014-04-23 16:52:00,
2014-04-23 12:53:00,70.7,40.4,29.89,West,277,11.7,17.6,34,0.00,,,0.00,WUHU216WMR968SP,2014-04-23 16:53:00,
2014-04-23 12:54:00,70.9,40.6,29.89,WNW,292,11.7,17.6,34,0.00,,,0.00,WUHU216WMR968SP,2014-04-23 16:54:00,
2014-04-23 12:56:00,70.9,40.6,29.89,West,281,15.9,15.9,34,0.00,,,0.00,WUHU216WMR968SP,2014-04-23 16:56:00,
2014-04-23 12:57:00,70.9,40.6,29.89,West,280,13.0,15.9,34,0.00,,,0.00,WUHU216WMR968SP,2014-04-23 16:57:00,
2014-04-23 12:58:00,70.7,40.4,29.89,WNW,289,15.9,15.9,34,0.00,,,0.00,WUHU216WMR968SP,2014-04-23 16:58:00,
2014-04-23 12:59:00,70.7,40.4,29.89,West,278,11.7,15.9,34,0.00,,,0.00,WUHU216WMR968SP,2014-04-23 16:59:00,
2014-04-23 13:01:00,70.5,40.3,29.89,WNW,295,10.1,15.9,34,0.00,,,0.00,WUHU216WMR968SP,2014-04-23 17:01:00,
2014-04-23 13:03:00,70.5,40.3,29.89,SW,219,13.0,15.9,34,0.00,,,0.00,WUHU216WMR968SP,2014-04-23 17:03:00,
2014-04-23 13:04:00,70.5,40.3,29.89,WNW,290,11.7,15.9,34,0.00,,,0.00,WUHU216WMR968SP,2014-04-23 17:04:00,
2014-04-23 13:06:00,70.3,40.1,29.89,West,277,14.6,15.9,34,0.00,,,0.00,WUHU216WMR968SP,2014-04-23 17:06:00,
2014-04-23 13:08:00,70.3,40.1,29.89,North,353,7.2,15.9,34,0.00,,,0.00,WUHU216WMR968SP,2014-04-23 17:08:00,
2014-04-23 13:09:00,70.3,40.1,29.89,NW,325,7.2,15.9,34,0.00,,,0.00,WUHU216WMR968SP,2014-04-23 17:09:00,
2014-04-23 13:10:00,70.3,40.1,29.89,NW,325,8.8,15.9,34,0.00,,,0.00,WUHU216WMR968SP,2014-04-23 17:10:00,
2014-04-23 13:11:00,70.5,40.3,29.89,WNW,300,7.2,14.6,34,0.00,,,0.00,WUHU216WMR968SP,2014-04-23 17:11:00,
2014-04-23 13:12:00,70.7,40.4,29.89,WNW,301,10.1,14.6,34,0.00,,,0.00,WUHU216WMR968SP,2014-04-23 17:12:00,
2014-04-23 13:13:00,70.9,40.6,29.89,WSW,253,0.0,14.6,34,0.00,,,0.00,WUHU216WMR968SP,2014-04-23 17:13:00,
2014-04-23 13:14:00,70.9,40.6,29.89,SSW,209,0.0,14.6,34,0.00,,,0.00,WUHU216WMR968SP,2014-04-23 17:14:00,
2014-04-23 13:15:00,70.9,40.6,29.89,WNW,283,10.1,14.6,34,0.00,,,0.00,WUHU216WMR968SP,2014-04-23 17:15:00,
2014-04-23 13:17:00,71.1,40.8,29.89,West,275,10.1,11.7,34,0.00,,,0.00,WUHU216WMR968SP,2014-04-23 17:17:00,
2014-04-23 13:18:00,71.1,40.8,29.89,NNE,30,8.8,10.1,34,0.00,,,0.00,WUHU216WMR968SP,2014-04-23 17:18:00,
2014-04-23 13:19:00,71.1,40.8,29.89,West,278,8.8,10.1,34,0.00,,,0.00,WUHU216WMR968SP,2014-04-23 17:19:00,
2014-04-23 13:21:00,71.2,40.9,29.89,West,277,11.7,11.7,34,0.00,,,0.00,WUHU216WMR968SP,2014-04-23 17:21:00,
2014-04-23 13:22:00,71.4,41.1,29.89,NW,305,0.0,11.7,34,0.00,,,0.00,WUHU216WMR968SP,2014-04-23 17:22:00,
2014-04-23 13:24:00,71.6,39.3,29.89,West,274,8.8,11.7,31,0.00,,,0.00,WUHU216WMR968SP,2014-04-23 17:24:00,
2014-04-23 13:25:00,71.6,39.3,29.89,WNW,283,8.8,11.7,31,0.00,,,0.00,WUHU216WMR968SP,2014-04-23 17:25:00,
2014-04-23 13:26:00,71.8,39.4,29.89,West,279,7.2,11.7,31,0.00,,,0.00,WUHU216WMR968SP,2014-04-23 17:26:00,
2014-04-23 13:27:00,71.8,39.4,29.89,WSW,242,11.7,11.7,31,0.00,,,0.00,WUHU216WMR968SP,2014-04-23 17:27:00,
2014-04-23 13:29:00,71.8,39.4,29.89,WNW,290,11.7,11.7,31,0.00,,,0.00,WUHU216WMR968SP,2014-04-23 17:29:00,
2014-04-23 13:30:00,71.8,39.4,29.89,West,275,13.0,13.0,31,0.00,,,0.00,WUHU216WMR968SP,2014-04-23 17:30:00,
2014-04-23 13:31:00,71.8,39.4,29.89,West,264,14.6,14.6,31,0.00,,,0.00,WUHU216WMR968SP,2014-04-23 17:31:00,
2014-04-23 13:32:00,71.6,39.3,29.89,West,274,11.7,14.6,31,0.00,,,0.00,WUHU216WMR968SP,2014-04-23 17:32:00,
2014-04-23 13:34:00,71.4,41.1,29.89,WSW,241,0.0,14.6,34,0.00,,,0.00,WUHU216WMR968SP,2014-04-23 17:34:00,
2014-04-23 13:35:00,71.2,40.9,29.89,West,272,8.8,14.6,34,0.00,,,0.00,WUHU216WMR968SP,2014-04-23 17:35:00,
2014-04-23 13:36:00,71.2,40.9,29.89,WNW,282,10.1,14.6,34,0.00,,,0.00,WUHU216WMR968SP,2014-04-23 17:36:00,
2014-04-23 13:37:00,71.2,40.9,29.89,WNW,283,11.7,14.6,34,0.00,,,0.00,WUHU216WMR968SP,2014-04-23 17:37:00,
2014-04-23 13:39:00,71.2,40.9,29.89,West,275,14.6,14.6,34,0.00,,,0.00,WUHU216WMR968SP,2014-04-23 17:39:00,
2014-04-23 13:40:00,71.1,40.8,29.89,WNW,291,13.0,14.6,34,0.00,,,0.00,WUHU216WMR968SP,2014-04-23 17:40:00,
2014-04-23 13:41:00,71.1,40.8,29.89,NW,313,13.0,14.6,34,0.00,,,0.00,WUHU216WMR968SP,2014-04-23 17:41:00,
2014-04-23 13:42:00,71.2,40.9,29.89,North,10,7.2,14.6,34,0.00,,,0.00,WUHU216WMR968SP,2014-04-23 17:42:00,
2014-04-23 13:43:00,71.2,40.9,29.89,West,272,8.8,14.6,34,0.00,,,0.00,WUHU216WMR968SP,2014-04-23 17:43:00,
2014-04-23 13:44:00,71.2,40.9,29.89,WSW,254,10.1,14.6,34,0.00,,,0.00,WUHU216WMR968SP,2014-04-23 17:44:00,
2014-04-23 13:45:00,71.2,40.9,29.89,West,260,7.2,14.6,34,0.00,,,0.00,WUHU216WMR968SP,2014-04-23 17:45:00,
2014-04-23 13:46:00,71.2,40.9,29.89,West,259,8.8,14.6,34,0.00,,,0.00,WUHU216WMR968SP,2014-04-23 17:46:00,
2014-04-23 13:47:00,71.2,40.9,29.89,West,259,0.0,14.6,34,0.00,,,0.00,WUHU216WMR968SP,2014-04-23 17:47:00,
2014-04-23 13:48:00,71.2,40.9,29.89,SSW,206,0.0,14.6,34,0.00,,,0.00,WUHU216WMR968SP,2014-04-23 17:48:00,
2014-04-23 13:50:00,71.2,40.9,29.89,West,281,14.6,14.6,34,0.00,,,0.00,WUHU216WMR968SP,2014-04-23 17:50:00,
2014-04-23 13:51:00,71.2,40.9,29.89,SW,230,14.6,14.6,34,0.00,,,0.00,WUHU216WMR968SP,2014-04-23 17:51:00,
2014-04-23 13:52:00,71.4,41.1,29.89,West,272,0.0,14.6,34,0.00,,,0.00,WUHU216WMR968SP,2014-04-23 17:52:00,
2014-04-23 13:53:00,71.4,41.1,29.89,West,278,11.7,14.6,34,0.00,,,0.00,WUHU216WMR968SP,2014-04-23 17:53:00,
2014-04-23 13:55:00,71.4,41.1,29.89,West,281,11.7,14.6,34,0.00,,,0.00,WUHU216WMR968SP,2014-04-23 17:55:00,
2014-04-23 13:56:00,71.4,41.1,29.89,West,280,13.0,14.6,34,0.00,,,0.00,WUHU216WMR968SP,2014-04-23 17:56:00,
2014-04-23 13:57:00,71.2,40.9,29.89,WSW,258,13.0,14.6,34,0.00,,,0.00,WUHU216WMR968SP,2014-04-23 17:57:00,
2014-04-23 14:00:00,71.1,40.8,29.89,West,277,10.1,14.6,34,0.00,,,0.00,WUHU216WMR968SP,2014-04-23 18:00:00,
2014-04-23 14:01:00,71.1,40.8,29.89,WNW,300,7.2,14.6,34,0.00,,,0.00,WUHU216WMR968SP,2014-04-23 18:01:00,
2014-04-23 14:03:00,71.2,40.9,29.89,West,280,10.1,14.6,34,0.00,,,0.00,WUHU216WMR968SP,2014-04-23 18:03:00,
2014-04-23 14:05:00,71.4,41.1,29.89,West,275,0.0,13.0,34,0.00,,,0.00,WUHU216WMR968SP,2014-04-23 18:05:00,
2014-04-23 14:06:00,71.4,41.1,29.89,WNW,286,7.2,13.0,34,0.00,,,0.00,WUHU216WMR968SP,2014-04-23 18:06:00,
2014-04-23 14:08:00,71.8,39.4,29.89,SSW,206,0.0,13.0,31,0.00,,,0.00,WUHU216WMR968SP,2014-04-23 18:08:00,
2014-04-23 14:11:00,72.1,39.7,29.89,West,279,8.8,10.1,31,0.00,,,0.00,WUHU216WMR968SP,2014-04-23 18:11:00,
2014-04-23 14:14:00,72.5,40.1,29.89,WNW,297,14.6,14.6,31,0.00,,,0.00,WUHU216WMR968SP,2014-04-23 18:14:00,
2014-04-23 14:16:00,72.7,40.2,29.89,WNW,291,7.2,14.6,31,0.00,,,0.00,WUHU216WMR968SP,2014-04-23 18:16:00,
2014-04-23 14:19:00,72.9,40.4,29.89,WNW,297,8.8,14.6,31,0.00,,,0.00,WUHU216WMR968SP,2014-04-23 18:19:00,
2014-04-23 14:21:00,72.9,40.4,29.89,WNW,303,8.8,14.6,31,0.00,,,0.00,WUHU216WMR968SP,2014-04-23 18:21:00,
2014-04-23 14:24:00,72.7,40.2,29.89,West,259,0.0,14.6,31,0.00,,,0.00,WUHU216WMR968SP,2014-04-23 18:24:00,
2014-04-23 14:26:00,72.7,40.2,29.89,WNW,284,11.7,11.7,31,0.00,,,0.00,WUHU216WMR968SP,2014-04-23 18:26:00,
2014-04-23 14:27:00,72.7,40.2,29.89,NNW,327,10.1,11.7,31,0.00,,,0.00,WUHU216WMR968SP,2014-04-23 18:27:00,
2014-04-23 14:29:00,72.7,40.2,29.89,WNW,287,10.1,11.7,31,0.00,,,0.00,WUHU216WMR968SP,2014-04-23 18:29:00,
2014-04-23 14:31:00,72.9,40.4,29.89,WNW,291,7.2,11.7,31,0.00,,,0.00,WUHU216WMR968SP,2014-04-23 18:31:00,
2014-04-23 14:32:00,72.9,40.4,29.89,WNW,286,11.7,11.7,31,0.00,,,0.00,WUHU216WMR968SP,2014-04-23 18:32:00,
2014-04-23 14:33:00,72.9,40.4,29.89,WNW,285,15.9,15.9,31,0.00,,,0.00,WUHU216WMR968SP,2014-04-23 18:33:00,
2014-04-23 14:34:00,72.9,40.4,29.89,WNW,289,15.9,15.9,31,0.00,,,0.00,WUHU216WMR968SP,2014-04-23 18:34:00,
2014-04-23 14:36:00,72.7,40.2,29.89,WNW,282,13.0,15.9,31,0.00,,,0.00,WUHU216WMR968SP,2014-04-23 18:36:00,
2014-04-23 14:37:00,72.5,40.1,29.89,WNW,283,8.8,15.9,31,0.00,,,0.00,WUHU216WMR968SP,2014-04-23 18:37:00,
2014-04-23 14:39:00,72.3,39.9,29.89,NW,315,10.1,15.9,31,0.00,,,0.00,WUHU216WMR968SP,2014-04-23 18:39:00,
2014-04-23 14:40:00,72.3,39.9,29.89,WNW,289,10.1,15.9,31,0.00,,,0.00,WUHU216WMR968SP,2014-04-23 18:40:00,
2014-04-23 14:42:00,72.3,39.9,29.89,NW,322,11.7,15.9,31,0.00,,,0.00,WUHU216WMR968SP,2014-04-23 18:42:00,
2014-04-23 14:44:00,72.3,39.9,29.89,WNW,299,10.1,15.9,31,0.00,,,0.00,WUHU216WMR968SP,2014-04-23 18:44:00,
2014-04-23 14:45:00,72.3,39.9,29.89,WNW,292,11.7,15.9,31,0.00,,,0.00,WUHU216WMR968SP,2014-04-23 18:45:00,
2014-04-23 14:47:00,72.3,39.9,29.89,WSW,258,11.7,15.9,31,0.00,,,0.00,WUHU216WMR968SP,2014-04-23 18:47:00,
2014-04-23 14:48:00,72.3,39.9,29.89,West,281,8.8,15.9,31,0.00,,,0.00,WUHU216WMR968SP,2014-04-23 18:48:00,
2014-04-23 14:49:00,72.3,39.9,29.89,WNW,289,14.6,15.9,31,0.00,,,0.00,WUHU216WMR968SP,2014-04-23 18:49:00,
2014-04-23 14:50:00,72.1,39.7,29.89,WNW,287,13.0,15.9,31,0.00,,,0.00,WUHU216WMR968SP,2014-04-23 18:50:00,
2014-04-23 14:53:00,72.0,39.6,29.89,WSW,248,8.8,15.9,31,0.00,,,0.00,WUHU216WMR968SP,2014-04-23 18:53:00,
2014-04-23 14:54:00,72.0,39.6,29.89,West,275,10.1,15.9,31,0.00,,,0.00,WUHU216WMR968SP,2014-04-23 18:54:00,
2014-04-23 14:55:00,72.0,39.6,29.89,NW,313,7.2,15.9,31,0.00,,,0.00,WUHU216WMR968SP,2014-04-23 18:55:00,
2014-04-23 14:58:00,72.0,39.6,29.86,NNW,332,8.8,14.6,31,0.00,,,0.00,WUHU216WMR968SP,2014-04-23 18:58:00,
2014-04-23 14:59:00,72.0,39.6,29.86,NW,305,7.2,14.6,31,0.00,,,0.00,WUHU216WMR968SP,2014-04-23 18:59:00,
2014-04-23 15:00:00,72.1,39.7,29.86,WNW,288,7.2,13.0,31,0.00,,,0.00,WUHU216WMR968SP,2014-04-23 19:00:00,
2014-04-23 15:03:00,72.3,39.9,29.86,West,273,18.9,18.9,31,0.00,,,0.00,WUHU216WMR968SP,2014-04-23 19:03:00,
2014-04-23 15:04:00,72.3,39.9,29.86,WNW,287,13.0,18.9,31,0.00,,,0.00,WUHU216WMR968SP,2014-04-23 19:04:00,
2014-04-23 15:05:00,72.1,39.7,29.86,West,279,13.0,18.9,31,0.00,,,0.00,WUHU216WMR968SP,2014-04-23 19:05:00,
2014-04-23 15:06:00,72.1,39.7,29.86,NNW,338,13.0,18.9,31,0.00,,,0.00,WUHU216WMR968SP,2014-04-23 19:06:00,
2014-04-23 15:08:00,72.1,39.7,29.86,WNW,296,11.7,18.9,31,0.00,,,0.00,WUHU216WMR968SP,2014-04-23 19:08:00,
2014-04-23 15:09:00,72.1,39.7,29.86,WNW,284,11.7,18.9,31,0.00,,,0.00,WUHU216WMR968SP,2014-04-23 19:09:00,
2014-04-23 15:10:00,72.3,39.9,29.86,NW,312,14.6,18.9,31,0.00,,,0.00,WUHU216WMR968SP,2014-04-23 19:10:00,
2014-04-23 15:11:00,72.5,40.1,29.86,NW,305,8.8,18.9,31,0.00,,,0.00,WUHU216WMR968SP,2014-04-23 19:11:00,
2014-04-23 15:13:00,72.7,40.2,29.86,WNW,282,10.1,18.9,31,0.00,,,0.00,WUHU216WMR968SP,2014-04-23 19:13:00,
2014-04-23 15:14:00,72.7,40.2,29.86,WNW,287,11.7,14.6,31,0.00,,,0.00,WUHU216WMR968SP,2014-04-23 19:14:00,
2014-04-23 15:15:00,72.7,40.2,29.86,ENE,78,11.7,14.6,31,0.00,,,0.00,WUHU216WMR968SP,2014-04-23 19:15:00,
2014-04-23 15:18:00,72.7,40.2,29.86,WSW,246,11.7,14.6,31,0.00,,,0.00,WUHU216WMR968SP,2014-04-23 19:18:00,
2014-04-23 15:19:00,72.7,40.2,29.86,NW,321,15.9,15.9,31,0.00,,,0.00,WUHU216WMR968SP,2014-04-23 19:19:00,
2014-04-23 15:20:00,72.7,40.2,29.86,NW,312,8.8,15.9,31,0.00,,,0.00,WUHU216WMR968SP,2014-04-23 19:20:00,
2014-04-23 15:21:00,72.7,40.2,29.86,WNW,285,10.1,15.9,31,0.00,,,0.00,WUHU216WMR968SP,2014-04-23 19:21:00,
2014-04-23 15:23:00,72.9,40.4,29.86,NW,313,14.6,15.9,31,0.00,,,0.00,WUHU216WMR968SP,2014-04-23 19:23:00,
2014-04-23 15:24:00,73.0,40.5,29.86,West,280,8.8,15.9,31,0.00,,,0.00,WUHU216WMR968SP,2014-04-23 19:24:00,
2014-04-23 15:25:00,73.0,40.5,29.86,WNW,293,13.0,15.9,31,0.00,,,0.00,WUHU216WMR968SP,2014-04-23 19:25:00,
2014-04-23 15:26:00,73.0,40.5,29.86,West,277,15.9,15.9,31,0.00,,,0.00,WUHU216WMR968SP,2014-04-23 19:26:00,
2014-04-23 15:29:00,72.9,40.4,29.86,NW,315,11.7,15.9,31,0.00,,,0.00,WUHU216WMR968SP,2014-04-23 19:29:00,
2014-04-23 15:30:00,72.9,40.4,29.86,WNW,283,10.1,15.9,31,0.00,,,0.00,WUHU216WMR968SP,2014-04-23 19:30:00,
2014-04-23 15:31:00,72.9,40.4,29.86,WNW,292,13.0,15.9,31,0.00,,,0.00,WUHU216WMR968SP,2014-04-23 19:31:00,
2014-04-23 15:34:00,73.0,40.5,29.86,NNW,336,0.0,15.9,31,0.00,,,0.00,WUHU216WMR968SP,2014-04-23 19:34:00,
2014-04-23 15:35:00,73.0,40.5,29.86,NNW,336,0.0,15.9,31,0.00,,,0.00,WUHU216WMR968SP,2014-04-23 19:35:00,
2014-04-23 15:36:00,73.0,40.5,29.86,NNW,335,0.0,15.9,31,0.00,,,0.00,WUHU216WMR968SP,2014-04-23 19:36:00,
2014-04-23 15:39:00,73.2,40.7,29.86,WNW,283,13.0,14.6,31,0.00,,,0.00,WUHU216WMR968SP,2014-04-23 19:39:00,
2014-04-23 15:40:00,73.2,40.7,29.86,WNW,285,15.9,15.9,31,0.00,,,0.00,WUHU216WMR968SP,2014-04-23 19:40:00,
2014-04-23 15:41:00,73.2,40.7,29.86,NNW,348,14.6,15.9,31,0.00,,,0.00,WUHU216WMR968SP,2014-04-23 19:41:00,
2014-04-23 15:42:00,73.2,40.7,29.86,WNW,287,10.1,15.9,31,0.00,,,0.00,WUHU216WMR968SP,2014-04-23 19:42:00,
2014-04-23 15:45:00,73.4,40.8,29.86,North,353,8.8,15.9,31,0.00,,,0.00,WUHU216WMR968SP,2014-04-23 19:45:00,
2014-04-23 15:46:00,73.4,40.8,29.86,NW,324,10.1,15.9,31,0.00,,,0.00,WUHU216WMR968SP,2014-04-23 19:46:00,
2014-04-23 15:47:00,73.4,40.8,29.86,West,276,10.1,15.9,31,0.00,,,0.00,WUHU216WMR968SP,2014-04-23 19:47:00,
2014-04-23 15:50:00,73.8,41.2,29.86,NNE,27,8.8,14.6,31,0.00,,,0.00,WUHU216WMR968SP,2014-04-23 19:50:00,
2014-04-23 15:51:00,73.8,41.2,29.86,North,357,8.8,14.6,31,0.00,,,0.00,WUHU216WMR968SP,2014-04-23 19:51:00,
2014-04-23 15:52:00,73.8,41.2,29.86,North,357,8.8,14.6,31,0.00,,,0.00,WUHU216WMR968SP,2014-04-23 19:52:00,
2014-04-23 15:53:00,73.9,41.3,29.86,NW,308,7.2,14.6,31,0.00,,,0.00,WUHU216WMR968SP,2014-04-23 19:53:00,
2014-04-23 15:55:00,73.9,41.3,29.86,WNW,286,13.0,13.0,31,0.00,,,0.00,WUHU216WMR968SP,2014-04-23 19:55:00,
2014-04-23 15:56:00,73.9,41.3,29.86,WNW,286,11.7,13.0,31,0.00,,,0.00,WUHU216WMR968SP,2014-04-23 19:56:00,
2014-04-23 15:57:00,73.9,41.3,29.86,WNW,282,13.0,13.0,31,0.00,,,0.00,WUHU216WMR968SP,2014-04-23 19:57:00,
2014-04-23 15:58:00,73.9,41.3,29.86,NNW,335,10.1,13.0,31,0.00,,,0.00,WUHU216WMR968SP,2014-04-23 19:58:00,
2014-04-23 15:59:00,73.9,41.3,29.86,SW,214,8.8,13.0,31,0.00,,,0.00,WUHU216WMR968SP,2014-04-23 19:59:00,
2014-04-23 16:01:00,73.9,41.3,29.86,WNW,292,13.0,13.0,31,0.00,,,0.00,WUHU216WMR968SP,2014-04-23 20:01:00,
2014-04-23 16:02:00,73.9,41.3,29.86,NW,321,13.0,13.0,31,0.00,,,0.00,WUHU216WMR968SP,2014-04-23 20:02:00,
2014-04-23 16:03:00,74.1,41.4,29.86,WNW,293,8.8,13.0,31,0.00,,,0.00,WUHU216WMR968SP,2014-04-23 20:03:00,
2014-04-23 16:04:00,74.1,41.4,29.86,North,353,8.8,13.0,31,0.00,,,0.00,WUHU216WMR968SP,2014-04-23 20:04:00,
2014-04-23 16:06:00,74.3,41.6,29.86,NW,313,10.1,13.0,31,0.00,,,0.00,WUHU216WMR968SP,2014-04-23 20:06:00,
2014-04-23 16:07:00,74.3,41.6,29.86,WNW,288,11.7,13.0,31,0.00,,,0.00,WUHU216WMR968SP,2014-04-23 20:07:00,
2014-04-23 16:08:00,74.3,41.6,29.86,WNW,287,11.7,13.0,31,0.00,,,0.00,WUHU216WMR968SP,2014-04-23 20:08:00,
2014-04-23 16:09:00,74.3,41.6,29.86,WNW,283,14.6,14.6,31,0.00,,,0.00,WUHU216WMR968SP,2014-04-23 20:09:00,
2014-04-23 16:11:00,74.3,41.6,29.86,WNW,287,15.9,15.9,31,0.00,,,0.00,WUHU216WMR968SP,2014-04-23 20:11:00,
2014-04-23 16:12:00,74.1,41.4,29.86,WNW,289,14.6,15.9,31,0.00,,,0.00,WUHU216WMR968SP,2014-04-23 20:12:00,
2014-04-23 16:13:00,74.1,41.4,29.86,West,280,13.0,15.9,31,0.00,,,0.00,WUHU216WMR968SP,2014-04-23 20:13:00,
2014-04-23 16:14:00,74.1,41.4,29.86,North,7,11.7,15.9,31,0.00,,,0.00,WUHU216WMR968SP,2014-04-23 20:14:00,
2014-04-23 16:16:00,74.1,41.4,29.86,SSW,213,8.8,15.9,31,0.00,,,0.00,WUHU216WMR968SP,2014-04-23 20:16:00,
2014-04-23 16:17:00,74.1,41.4,29.86,South,187,7.2,15.9,31,0.00,,,0.00,WUHU216WMR968SP,2014-04-23 20:17:00,
2014-04-23 16:18:00,74.1,41.4,29.86,NW,324,0.0,15.9,31,0.00,,,0.00,WUHU216WMR968SP,2014-04-23 20:18:00,
2014-04-23 16:19:00,74.1,41.4,29.86,WNW,290,8.8,15.9,31,0.00,,,0.00,WUHU216WMR968SP,2014-04-23 20:19:00,
2014-04-23 16:21:00,74.1,41.4,29.86,WNW,297,7.2,15.9,31,0.00,,,0.00,WUHU216WMR968SP,2014-04-23 20:21:00,
2014-04-23 16:22:00,74.1,41.4,29.86,WNW,297,10.1,14.6,31,0.00,,,0.00,WUHU216WMR968SP,2014-04-23 20:22:00,
2014-04-23 16:23:00,74.1,41.4,29.86,WNW,282,7.2,13.0,31,0.00,,,0.00,WUHU216WMR968SP,2014-04-23 20:23:00,
2014-04-23 16:25:00,74.3,41.6,29.86,NW,311,8.8,11.7,31,0.00,,,0.00,WUHU216WMR968SP,2014-04-23 20:25:00,
2014-04-23 16:26:00,74.3,41.6,29.86,NW,313,8.8,11.7,31,0.00,,,0.00,WUHU216WMR968SP,2014-04-23 20:26:00,
2014-04-23 16:27:00,74.3,41.6,29.86,NW,313,0.0,11.7,31,0.00,,,0.00,WUHU216WMR968SP,2014-04-23 20:27:00,
2014-04-23 16:28:00,74.3,41.6,29.86,ENE,71,0.0,11.7,31,0.00,,,0.00,WUHU216WMR968SP,2014-04-23 20:28:00,
2014-04-23 16:30:00,74.5,41.8,29.86,SW,223,8.8,11.7,31,0.00,,,0.00,WUHU216WMR968SP,2014-04-23 20:30:00,
2014-04-23 16:31:00,74.5,41.8,29.86,SW,221,0.0,10.1,31,0.00,,,0.00,WUHU216WMR968SP,2014-04-23 20:31:00,
2014-04-23 16:32:00,74.5,41.8,29.86,WSW,241,0.0,10.1,31,0.00,,,0.00,WUHU216WMR968SP,2014-04-23 20:32:00,
2014-04-23 16:33:00,74.5,41.8,29.86,West,267,8.8,8.8,31,0.00,,,0.00,WUHU216WMR968SP,2014-04-23 20:33:00,
2014-04-23 16:34:00,74.5,41.8,29.86,West,272,11.7,11.7,31,0.00,,,0.00,WUHU216WMR968SP,2014-04-23 20:34:00,
2014-04-23 16:35:00,74.3,41.6,29.86,West,277,8.8,11.7,31,0.00,,,0.00,WUHU216WMR968SP,2014-04-23 20:35:00,
2014-04-23 16:36:00,74.3,41.6,29.86,NW,321,11.7,11.7,31,0.00,,,0.00,WUHU216WMR968SP,2014-04-23 20:36:00,
2014-04-23 16:37:00,74.3,41.6,29.86,NNW,334,8.8,11.7,31,0.00,,,0.00,WUHU216WMR968SP,2014-04-23 20:37:00,
2014-04-23 16:38:00,74.3,41.6,29.86,West,278,8.8,11.7,31,0.00,,,0.00,WUHU216WMR968SP,2014-04-23 20:38:00,
2014-04-23 16:39:00,74.3,41.6,29.86,West,277,11.7,11.7,31,0.00,,,0.00,WUHU216WMR968SP,2014-04-23 20:39:00,
2014-04-23 16:40:00,74.5,41.8,29.86,West,279,11.7,11.7,31,0.00,,,0.00,WUHU216WMR968SP,2014-04-23 20:40:00,
2014-04-23 16:41:00,74.7,42.0,29.86,SSE,155,11.7,11.7,31,0.00,,,0.00,WUHU216WMR968SP,2014-04-23 20:41:00,
2014-04-23 16:42:00,74.7,42.0,29.86,SSE,155,7.2,11.7,31,0.00,,,0.00,WUHU216WMR968SP,2014-04-23 20:42:00,
2014-04-23 16:43:00,74.7,42.0,29.86,West,278,0.0,11.7,31,0.00,,,0.00,WUHU216WMR968SP,2014-04-23 20:43:00,
2014-04-23 16:44:00,74.8,42.1,29.86,West,281,11.7,11.7,31,0.00,,,0.00,WUHU216WMR968SP,2014-04-23 20:44:00,
2014-04-23 16:45:00,74.8,42.1,29.86,WNW,295,10.1,11.7,31,0.00,,,0.00,WUHU216WMR968SP,2014-04-23 20:45:00,
2014-04-23 16:46:00,74.8,42.1,29.86,WSW,247,0.0,11.7,31,0.00,,,0.00,WUHU216WMR968SP,2014-04-23 20:46:00,
2014-04-23 16:47:00,74.8,42.1,29.86,WSW,244,0.0,11.7,31,0.00,,,0.00,WUHU216WMR968SP,2014-04-23 20:47:00,
2014-04-23 16:48:00,74.8,42.1,29.86,WSW,254,7.2,11.7,31,0.00,,,0.00,WUHU216WMR968SP,2014-04-23 20:48:00,
2014-04-23 16:49:00,74.8,42.1,29.86,WSW,254,0.0,11.7,31,0.00,,,0.00,WUHU216WMR968SP,2014-04-23 20:49:00,
2014-04-23 16:50:00,75.0,42.2,29.86,NW,308,0.0,11.7,31,0.00,,,0.00,WUHU216WMR968SP,2014-04-23 20:50:00,
2014-04-23 16:52:00,75.0,42.2,29.86,NW,308,0.0,11.7,31,0.00,,,0.00,WUHU216WMR968SP,2014-04-23 20:52:00,
2014-04-23 16:53:00,75.2,40.3,29.86,WSW,237,0.0,11.7,29,0.00,,,0.00,WUHU216WMR968SP,2014-04-23 20:53:00,
2014-04-23 16:54:00,75.2,40.3,29.86,West,266,7.2,11.7,29,0.00,,,0.00,WUHU216WMR968SP,2014-04-23 20:54:00,
2014-04-23 16:56:00,75.2,40.3,29.86,West,277,10.1,10.1,29,0.00,,,0.00,WUHU216WMR968SP,2014-04-23 20:56:00,
2014-04-23 16:57:00,75.2,40.3,29.86,WNW,287,11.7,11.7,29,0.00,,,0.00,WUHU216WMR968SP,2014-04-23 20:57:00,
2014-04-23 16:59:00,75.4,40.4,29.86,NW,319,8.8,11.7,29,0.00,,,0.00,WUHU216WMR968SP,2014-04-23 20:59:00,
2014-04-23 17:01:00,75.4,40.4,29.86,NE,38,10.1,11.7,29,0.00,,,0.00,WUHU216WMR968SP,2014-04-23 21:01:00,
2014-04-23 17:02:00,75.4,40.4,29.86,WNW,293,0.0,11.7,29,0.00,,,0.00,WUHU216WMR968SP,2014-04-23 21:02:00,
2014-04-23 17:03:00,75.4,40.4,29.86,WNW,293,8.8,11.7,29,0.00,,,0.00,WUHU216WMR968SP,2014-04-23 21:03:00,
2014-04-23 17:04:00,75.4,40.4,29.86,WNW,289,10.1,11.7,29,0.00,,,0.00,WUHU216WMR968SP,2014-04-23 21:04:00,
2014-04-23 17:05:00,75.4,40.4,29.86,NW,304,11.7,11.7,29,0.00,,,0.00,WUHU216WMR968SP,2014-04-23 21:05:00,
2014-04-23 17:06:00,75.4,40.4,29.86,West,272,11.7,11.7,29,0.00,,,0.00,WUHU216WMR968SP,2014-04-23 21:06:00,
2014-04-23 17:08:00,75.2,40.3,29.86,WNW,296,11.7,11.7,29,0.00,,,0.00,WUHU216WMR968SP,2014-04-23 21:08:00,
2014-04-23 17:09:00,75.2,40.3,29.86,WNW,296,10.1,11.7,29,0.00,,,0.00,WUHU216WMR968SP,2014-04-23 21:09:00,
2014-04-23 17:10:00,75.2,40.3,29.86,WNW,284,10.1,11.7,29,0.00,,,0.00,WUHU216WMR968SP,2014-04-23 21:10:00,
2014-04-23 17:11:00,75.2,40.3,29.86,West,278,10.1,11.7,29,0.00,,,0.00,WUHU216WMR968SP,2014-04-23 21:11:00,
2014-04-23 17:13:00,75.2,40.3,29.86,West,277,10.1,11.7,29,0.00,,,0.00,WUHU216WMR968SP,2014-04-23 21:13:00,
2014-04-23 17:14:00,75.0,42.2,29.86,WNW,283,11.7,11.7,31,0.00,,,0.00,WUHU216WMR968SP,2014-04-23 21:14:00,
2014-04-23 17:15:00,75.0,42.2,29.86,NW,304,10.1,11.7,31,0.00,,,0.00,WUHU216WMR968SP,2014-04-23 21:15:00,
2014-04-23 17:16:00,75.0,42.2,29.86,West,274,10.1,11.7,31,0.00,,,0.00,WUHU216WMR968SP,2014-04-23 21:16:00,
2014-04-23 17:18:00,75.0,42.2,29.86,WSW,257,8.8,11.7,31,0.00,,,0.00,WUHU216WMR968SP,2014-04-23 21:18:00,
2014-04-23 17:19:00,75.0,42.2,29.86,North,7,8.8,11.7,31,0.00,,,0.00,WUHU216WMR968SP,2014-04-23 21:19:00,
2014-04-23 17:20:00,75.0,42.2,29.86,NW,312,8.8,11.7,31,0.00,,,0.00,WUHU216WMR968SP,2014-04-23 21:20:00,
2014-04-23 17:21:00,75.0,42.2,29.86,NW,322,8.8,11.7,31,0.00,,,0.00,WUHU216WMR968SP,2014-04-23 21:21:00,
2014-04-23 17:23:00,75.2,40.3,29.86,WNW,299,7.2,11.7,29,0.00,,,0.00,WUHU216WMR968SP,2014-04-23 21:23:00,
2014-04-23 17:24:00,75.2,40.3,29.86,WNW,300,0.0,11.7,29,0.00,,,0.00,WUHU216WMR968SP,2014-04-23 21:24:00,
2014-04-23 17:25:00,75.2,40.3,29.86,NNW,332,0.0,10.1,29,0.00,,,0.00,WUHU216WMR968SP,2014-04-23 21:25:00,
2014-04-23 17:26:00,75.2,40.3,29.83,NNE,15,8.8,10.1,29,0.00,,,0.00,WUHU216WMR968SP,2014-04-23 21:26:00,
2014-04-23 17:29:00,75.4,40.4,29.83,WNW,283,11.7,11.7,29,0.00,,,0.00,WUHU216WMR968SP,2014-04-23 21:29:00,
2014-04-23 17:30:00,75.4,40.4,29.83,WNW,283,10.1,11.7,29,0.00,,,0.00,WUHU216WMR968SP,2014-04-23 21:30:00,
2014-04-23 17:31:00,75.4,40.4,29.83,NW,315,10.1,11.7,29,0.00,,,0.00,WUHU216WMR968SP,2014-04-23 21:31:00,
2014-04-23 17:32:00,75.4,40.4,29.83,North,349,7.2,11.7,29,0.00,,,0.00,WUHU216WMR968SP,2014-04-23 21:32:00,
2014-04-23 17:34:00,75.6,40.6,29.83,ENE,73,0.0,11.7,29,0.00,,,0.00,WUHU216WMR968SP,2014-04-23 21:34:00,
2014-04-23 17:35:00,75.6,40.6,29.83,ENE,73,8.8,11.7,29,0.00,,,0.00,WUHU216WMR968SP,2014-04-23 21:35:00,
2014-04-23 17:36:00,75.4,40.4,29.83,ENE,73,7.2,11.7,29,0.00,,,0.00,WUHU216WMR968SP,2014-04-23 21:36:00,
2014-04-23 17:38:00,75.4,40.4,29.83,NE,52,7.2,11.7,29,0.00,,,0.00,WUHU216WMR968SP,2014-04-23 21:38:00,
2014-04-23 17:40:00,75.2,40.3,29.83,South,176,0.0,10.1,29,0.00,,,0.00,WUHU216WMR968SP,2014-04-23 21:40:00,
2014-04-23 17:41:00,75.2,40.3,29.83,SSE,155,0.0,8.8,29,0.00,,,0.00,WUHU216WMR968SP,2014-04-23 21:41:00,
2014-04-23 17:43:00,75.0,42.2,29.86,North,353,0.0,8.8,31,0.00,,,0.00,WUHU216WMR968SP,2014-04-23 21:43:00,
2014-04-23 17:45:00,75.0,42.2,29.86,West,280,8.8,8.8,31,0.00,,,0.00,WUHU216WMR968SP,2014-04-23 21:45:00,
2014-04-23 17:46:00,75.0,42.2,29.86,West,280,7.2,8.8,31,0.00,,,0.00,WUHU216WMR968SP,2014-04-23 21:46:00,
2014-04-23 17:47:00,75.0,42.2,29.86,West,280,11.7,11.7,31,0.00,,,0.00,WUHU216WMR968SP,2014-04-23 21:47:00,
2014-04-23 17:48:00,75.0,42.2,29.86,WNW,294,7.2,11.7,31,0.00,,,0.00,WUHU216WMR968SP,2014-04-23 21:48:00,
2014-04-23 17:50:00,75.0,42.2,29.86,WNW,285,7.2,11.7,31,0.00,,,0.00,WUHU216WMR968SP,2014-04-23 21:50:00,
2014-04-23 17:52:00,75.0,42.2,29.86,WNW,298,10.1,11.7,31,0.00,,,0.00,WUHU216WMR968SP,2014-04-23 21:52:00,
2014-04-23 17:53:00,75.0,42.2,29.86,West,274,10.1,11.7,31,0.00,,,0.00,WUHU216WMR968SP,2014-04-23 21:53:00,
2014-04-23 17:55:00,75.0,42.2,29.86,West,266,7.2,11.7,31,0.00,,,0.00,WUHU216WMR968SP,2014-04-23 21:55:00,
2014-04-23 17:57:00,75.0,42.2,29.86,WNW,288,7.2,11.7,31,0.00,,,0.00,WUHU216WMR968SP,2014-04-23 21:57:00,
2014-04-23 17:58:00,75.0,42.2,29.86,WNW,288,0.0,11.7,31,0.00,,,0.00,WUHU216WMR968SP,2014-04-23 21:58:00,
2014-04-23 18:01:00,75.0,42.2,29.86,WNW,287,10.1,11.7,31,0.00,,,0.00,WUHU216WMR968SP,2014-04-23 22:01:00,
2014-04-23 18:02:00,74.8,42.1,29.86,WNW,285,11.7,11.7,31,0.00,,,0.00,WUHU216WMR968SP,2014-04-23 22:02:00,
2014-04-23 18:03:00,74.8,42.1,29.86,West,280,10.1,11.7,31,0.00,,,0.00,WUHU216WMR968SP,2014-04-23 22:03:00,
2014-04-23 18:04:00,74.8,42.1,29.86,NW,326,0.0,11.7,31,0.00,,,0.00,WUHU216WMR968SP,2014-04-23 22:04:00,
2014-04-23 18:06:00,74.8,42.1,29.86,WNW,295,0.0,11.7,31,0.00,,,0.00,WUHU216WMR968SP,2014-04-23 22:06:00,
2014-04-23 18:07:00,74.8,42.1,29.86,WNW,295,10.1,11.7,31,0.00,,,0.00,WUHU216WMR968SP,2014-04-23 22:07:00,
2014-04-23 18:08:00,74.8,42.1,29.86,SSW,195,0.0,11.7,31,0.00,,,0.00,WUHU216WMR968SP,2014-04-23 22:08:00,
2014-04-23 18:09:00,74.8,42.1,29.86,WNW,300,7.2,11.7,31,0.00,,,0.00,WUHU216WMR968SP,2014-04-23 22:09:00,
2014-04-23 18:11:00,74.8,42.1,29.86,WNW,298,7.2,11.7,31,0.00,,,0.00,WUHU216WMR968SP,2014-04-23 22:11:00,
2014-04-23 18:12:00,74.8,42.1,29.86,WNW,298,0.0,11.7,31,0.00,,,0.00,WUHU216WMR968SP,2014-04-23 22:12:00,
2014-04-23 18:13:00,74.8,42.1,29.86,WNW,298,0.0,10.1,31,0.00,,,0.00,WUHU216WMR968SP,2014-04-23 22:13:00,
2014-04-23 18:14:00,75.0,42.2,29.86,WNW,298,0.0,10.1,31,0.00,,,0.00,WUHU216WMR968SP,2014-04-23 22:14:00,
2014-04-23 18:16:00,74.8,42.1,29.86,NE,36,7.2,10.1,31,0.00,,,0.00,WUHU216WMR968SP,2014-04-23 22:16:00,
2014-04-23 18:17:00,74.8,42.1,29.86,NE,47,8.8,10.1,31,0.00,,,0.00,WUHU216WMR968SP,2014-04-23 22:17:00,
2014-04-23 18:18:00,74.8,42.1,29.86,NNE,17,0.0,8.8,31,0.00,,,0.00,WUHU216WMR968SP,2014-04-23 22:18:00,
2014-04-23 18:20:00,74.7,42.0,29.86,NNE,17,0.0,8.8,31,0.00,,,0.00,WUHU216WMR968SP,2014-04-23 22:20:00,
2014-04-23 18:22:00,74.7,42.0,29.86,NNE,17,0.0,8.8,31,0.00,,,0.00,WUHU216WMR968SP,2014-04-23 22:22:00,
2014-04-23 18:23:00,74.5,41.8,29.86,NNE,12,0.0,8.8,31,0.00,,,0.00,WUHU216WMR968SP,2014-04-23 22:23:00,
2014-04-23 18:24:00,74.5,41.8,29.86,West,270,0.0,8.8,31,0.00,,,0.00,WUHU216WMR968SP,2014-04-23 22:24:00,
2014-04-23 18:25:00,74.5,41.8,29.86,WSW,240,0.0,8.8,31,0.00,,,0.00,WUHU216WMR968SP,2014-04-23 22:25:00,
2014-04-23 18:27:00,74.5,41.8,29.86,WSW,240,0.0,8.8,31,0.00,,,0.00,WUHU216WMR968SP,2014-04-23 22:27:00,
2014-04-23 18:29:00,74.5,41.8,29.86,WSW,240,0.0,5.4,31,0.00,,,0.00,WUHU216WMR968SP,2014-04-23 22:29:00,
2014-04-23 18:30:00,74.5,41.8,29.86,WSW,240,0.0,5.4,31,0.00,,,0.00,WUHU216WMR968SP,2014-04-23 22:30:00,
2014-04-23 18:33:00,74.3,41.6,29.86,West,264,0.0,5.4,31,0.00,,,0.00,WUHU216WMR968SP,2014-04-23 22:33:00,
2014-04-23 18:34:00,74.3,41.6,29.86,West,264,0.0,4.1,31,0.00,,,0.00,WUHU216WMR968SP,2014-04-23 22:34:00,
2014-04-23 18:35:00,74.1,41.4,29.86,West,268,7.2,7.2,31,0.00,,,0.00,WUHU216WMR968SP,2014-04-23 22:35:00,
2014-04-23 18:38:00,74.1,41.4,29.86,West,277,7.2,8.8,31,0.00,,,0.00,WUHU216WMR968SP,2014-04-23 22:38:00,
2014-04-23 18:39:00,73.9,41.3,29.86,West,277,0.0,8.8,31,0.00,,,0.00,WUHU216WMR968SP,2014-04-23 22:39:00,
2014-04-23 18:40:00,73.9,41.3,29.86,WNW,282,8.8,8.8,31,0.00,,,0.00,WUHU216WMR968SP,2014-04-23 22:40:00,
2014-04-23 18:41:00,73.9,41.3,29.86,WNW,282,8.8,8.8,31,0.00,,,0.00,WUHU216WMR968SP,2014-04-23 22:41:00,
2014-04-23 18:43:00,73.8,41.2,29.86,West,271,8.8,8.8,31,0.00,,,0.00,WUHU216WMR968SP,2014-04-23 22:43:00,
2014-04-23 18:44:00,73.8,41.2,29.86,WNW,288,7.2,8.8,31,0.00,,,0.00,WUHU216WMR968SP,2014-04-23 22:44:00,
2014-04-23 18:45:00,73.6,41.0,29.86,WNW,288,0.0,8.8,31,0.00,,,0.00,WUHU216WMR968SP,2014-04-23 22:45:00,
2014-04-23 18:46:00,73.6,41.0,29.86,WNW,287,0.0,8.8,31,0.00,,,0.00,WUHU216WMR968SP,2014-04-23 22:46:00,
2014-04-23 18:48:00,73.4,40.8,29.86,WNW,287,0.0,8.8,31,0.00,,,0.00,WUHU216WMR968SP,2014-04-23 22:48:00,
2014-04-23 18:49:00,73.4,40.8,29.86,WNW,287,0.0,8.8,31,0.00,,,0.00,WUHU216WMR968SP,2014-04-23 22:49:00,
2014-04-23 18:51:00,73.2,40.7,29.86,WNW,288,0.0,8.8,31,0.00,,,0.00,WUHU216WMR968SP,2014-04-23 22:51:00,
2014-04-23 18:53:00,73.2,40.7,29.86,West,274,0.0,8.8,31,0.00,,,0.00,WUHU216WMR968SP,2014-04-23 22:53:00,
2014-04-23 18:54:00,73.0,40.5,29.86,West,274,0.0,7.2,31,0.00,,,0.00,WUHU216WMR968SP,2014-04-23 22:54:00,
2014-04-23 18:55:00,73.0,40.5,29.86,West,274,0.0,4.6,31,0.00,,,0.00,WUHU216WMR968SP,2014-04-23 22:55:00,
2014-04-23 18:56:00,73.0,40.5,29.86,West,274,0.0,4.6,31,0.00,,,0.00,WUHU216WMR968SP,2014-04-23 22:56:00,
2014-04-23 18:57:00,73.0,40.5,29.86,West,274,0.0,4.6,31,0.00,,,0.00,WUHU216WMR968SP,2014-04-23 22:57:00,
2014-04-23 18:59:00,72.9,40.4,29.86,NNW,338,0.0,5.4,31,0.00,,,0.00,WUHU216WMR968SP,2014-04-23 22:59:00,
2014-04-23 19:00:00,72.9,40.4,29.86,WSW,246,7.2,7.2,31,0.00,,,0.00,WUHU216WMR968SP,2014-04-23 23:00:00,
2014-04-23 19:01:00,72.9,40.4,29.86,WSW,246,0.0,7.2,31,0.00,,,0.00,WUHU216WMR968SP,2014-04-23 23:01:00,
2014-04-23 19:02:00,72.7,40.2,29.86,WSW,246,0.0,7.2,31,0.00,,,0.00,WUHU216WMR968SP,2014-04-23 23:02:00,
2014-04-23 19:04:00,72.5,40.1,29.86,WSW,246,0.0,7.2,31,0.00,,,0.00,WUHU216WMR968SP,2014-04-23 23:04:00,
2014-04-23 19:05:00,72.3,39.9,29.86,WSW,246,0.0,7.2,31,0.00,,,0.00,WUHU216WMR968SP,2014-04-23 23:05:00,
2014-04-23 19:06:00,72.3,39.9,29.86,West,279,7.2,7.2,31,0.00,,,0.00,WUHU216WMR968SP,2014-04-23 23:06:00,
2014-04-23 19:07:00,72.1,39.7,29.86,West,279,0.0,7.2,31,0.00,,,0.00,WUHU216WMR968SP,2014-04-23 23:07:00,
2014-04-23 19:09:00,72.0,39.6,29.86,SW,235,7.2,7.2,31,0.00,,,0.00,WUHU216WMR968SP,2014-04-23 23:09:00,
2014-04-23 19:10:00,72.0,39.6,29.86,SW,235,7.2,7.2,31,0.00,,,0.00,WUHU216WMR968SP,2014-04-23 23:10:00,
2014-04-23 19:11:00,72.0,39.6,29.86,SW,235,0.0,7.2,31,0.00,,,0.00,WUHU216WMR968SP,2014-04-23 23:11:00,
2014-04-23 19:12:00,71.8,39.4,29.86,SW,235,0.0,7.2,31,0.00,,,0.00,WUHU216WMR968SP,2014-04-23 23:12:00,
2014-04-23 19:13:00,71.6,39.3,29.86,SW,235,0.0,7.2,31,0.00,,,0.00,WUHU216WMR968SP,2014-04-23 23:13:00,
2014-04-23 19:14:00,71.6,39.3,29.86,SW,235,0.0,7.2,31,0.00,,,0.00,WUHU216WMR968SP,2014-04-23 23:14:00,
2014-04-23 19:15:00,71.6,39.3,29.86,SW,235,0.0,7.2,31,0.00,,,0.00,WUHU216WMR968SP,2014-04-23 23:15:00,
2014-04-23 19:16:00,71.4,41.1,29.86,SW,235,0.0,7.2,34,0.00,,,0.00,WUHU216WMR968SP,2014-04-23 23:16:00,
2014-04-23 19:17:00,71.2,40.9,29.86,SSE,161,0.0,7.2,34,0.00,,,0.00,WUHU216WMR968SP,2014-04-23 23:17:00,
2014-04-23 19:18:00,71.2,40.9,29.86,SSE,161,0.0,7.2,34,0.00,,,0.00,WUHU216WMR968SP,2014-04-23 23:18:00,
2014-04-23 19:19:00,71.1,40.8,29.86,SSE,161,0.0,7.2,34,0.00,,,0.00,WUHU216WMR968SP,2014-04-23 23:19:00,
2014-04-23 19:20:00,71.1,40.8,29.86,SSE,161,0.0,5.4,34,0.00,,,0.00,WUHU216WMR968SP,2014-04-23 23:20:00,
2014-04-23 19:21:00,71.1,40.8,29.86,SSE,161,0.0,5.4,34,0.00,,,0.00,WUHU216WMR968SP,2014-04-23 23:21:00,
2014-04-23 19:22:00,70.9,40.6,29.86,SSE,161,0.0,5.4,34,0.00,,,0.00,WUHU216WMR968SP,2014-04-23 23:22:00,
2014-04-23 19:24:00,70.7,40.4,29.86,WSW,241,0.0,5.4,34,0.00,,,0.00,WUHU216WMR968SP,2014-04-23 23:24:00,
2014-04-23 19:25:00,70.7,40.4,29.86,WSW,241,0.0,5.4,34,0.00,,,0.00,WUHU216WMR968SP,2014-04-23 23:25:00,
2014-04-23 19:26:00,70.7,40.4,29.86,WSW,241,0.0,5.4,34,0.00,,,0.00,WUHU216WMR968SP,2014-04-23 23:26:00,
2014-04-23 19:27:00,70.5,40.3,29.86,WSW,241,0.0,4.1,34,0.00,,,0.00,WUHU216WMR968SP,2014-04-23 23:27:00,
2014-04-23 19:28:00,70.5,40.3,29.86,WSW,241,0.0,4.1,34,0.00,,,0.00,WUHU216WMR968SP,2014-04-23 23:28:00,
2014-04-23 19:29:00,70.5,40.3,29.86,WSW,241,0.0,4.1,34,0.00,,,0.00,WUHU216WMR968SP,2014-04-23 23:29:00,
2014-04-23 19:30:00,70.3,40.1,29.86,WSW,241,0.0,4.1,34,0.00,,,0.00,WUHU216WMR968SP,2014-04-23 23:30:00,
2014-04-23 19:31:00,70.3,40.1,29.86,WSW,241,0.0,4.1,34,0.00,,,0.00,WUHU216WMR968SP,2014-04-23 23:31:00,
2014-04-23 19:32:00,70.2,40.0,29.86,WSW,241,0.0,4.1,34,0.00,,,0.00,WUHU216WMR968SP,2014-04-23 23:32:00,
2014-04-23 19:33:00,70.2,40.0,29.86,WSW,242,0.0,3.3,34,0.00,,,0.00,WUHU216WMR968SP,2014-04-23 23:33:00,
2014-04-23 19:34:00,70.2,40.0,29.86,WSW,242,0.0,0.0,34,0.00,,,0.00,WUHU216WMR968SP,2014-04-23 23:34:00,
2014-04-23 19:35:00,70.0,39.8,29.86,WSW,242,0.0,0.0,34,0.00,,,0.00,WUHU216WMR968SP,2014-04-23 23:35:00,
2014-04-23 19:36:00,70.0,39.8,29.86,WSW,242,0.0,0.0,34,0.00,,,0.00,WUHU216WMR968SP,2014-04-23 23:36:00,
2014-04-23 19:37:00,69.8,39.7,29.86,WSW,242,0.0,0.0,34,0.00,,,0.00,WUHU216WMR968SP,2014-04-23 23:37:00,
2014-04-23 19:39:00,69.8,39.7,29.86,WSW,242,0.0,0.0,34,0.00,,,0.00,WUHU216WMR968SP,2014-04-23 23:39:00,
2014-04-23 19:40:00,69.6,39.5,29.86,WSW,242,0.0,0.0,34,0.00,,,0.00,WUHU216WMR968SP,2014-04-23 23:40:00,
2014-04-23 19:41:00,69.6,39.5,29.86,WSW,242,0.0,0.0,34,0.00,,,0.00,WUHU216WMR968SP,2014-04-23 23:41:00,
2014-04-23 19:42:00,69.4,39.3,29.86,WSW,242,0.0,0.0,34,0.00,,,0.00,WUHU216WMR968SP,2014-04-23 23:42:00,
2014-04-23 19:45:00,69.3,39.2,29.86,WSW,242,0.0,0.0,34,0.00,,,0.00,WUHU216WMR968SP,2014-04-23 23:45:00,
2014-04-23 19:46:00,69.1,39.0,29.86,WSW,242,0.0,0.0,34,0.00,,,0.00,WUHU216WMR968SP,2014-04-23 23:46:00,
2014-04-23 19:47:00,69.1,39.0,29.86,WSW,242,0.0,0.0,34,0.00,,,0.00,WUHU216WMR968SP,2014-04-23 23:47:00,
2014-04-23 19:50:00,68.7,38.7,29.86,WSW,242,0.0,0.0,34,0.00,,,0.00,WUHU216WMR968SP,2014-04-23 23:50:00,
2014-04-23 19:51:00,68.7,38.7,29.86,WSW,242,0.0,0.0,34,0.00,,,0.00,WUHU216WMR968SP,2014-04-23 23:51:00,
2014-04-23 19:52:00,68.5,38.5,29.86,WSW,242,0.0,0.0,34,0.00,,,0.00,WUHU216WMR968SP,2014-04-23 23:52:00,
2014-04-23 19:53:00,68.5,38.5,29.86,WSW,242,0.0,0.0,34,0.00,,,0.00,WUHU216WMR968SP,2014-04-23 23:53:00,
2014-04-23 19:56:00,68.2,38.2,29.86,WSW,242,0.0,0.0,34,0.00,,,0.00,WUHU216WMR968SP,2014-04-23 23:56:00,
2014-04-23 19:57:00,68.2,38.2,29.89,WSW,242,0.0,0.0,34,0.00,,,0.00,WUHU216WMR968SP,2014-04-23 23:57:00,
2014-04-23 19:58:00,68.0,38.1,29.89,WSW,242,0.0,0.0,34,0.00,,,0.00,WUHU216WMR968SP,2014-04-23 23:58:00,
2014-04-23 20:01:00,67.8,37.9,29.89,WSW,242,0.0,0.0,34,0.00,,,0.00,WUHU216WMR968SP,2014-04-24 00:01:00,
2014-04-23 20:02:00,67.8,37.9,29.89,WSW,242,0.0,0.0,34,0.00,,,0.00,WUHU216WMR968SP,2014-04-24 00:02:00,
2014-04-23 20:04:00,67.6,37.7,29.89,WSW,242,0.0,0.0,34,0.00,,,0.00,WUHU216WMR968SP,2014-04-24 00:04:00,
2014-04-23 20:07:00,67.3,37.4,29.89,WSW,242,0.0,0.0,34,0.00,,,0.00,WUHU216WMR968SP,2014-04-24 00:07:00,
2014-04-23 20:10:00,67.1,37.3,29.89,WSW,242,0.0,0.0,34,0.00,,,0.00,WUHU216WMR968SP,2014-04-24 00:10:00,
2014-04-23 20:12:00,66.9,37.1,29.89,WSW,242,0.0,0.0,34,0.00,,,0.00,WUHU216WMR968SP,2014-04-24 00:12:00,
2014-04-23 20:13:00,66.7,36.9,29.89,WSW,242,0.0,0.0,34,0.00,,,0.00,WUHU216WMR968SP,2014-04-24 00:13:00,
2014-04-23 20:15:00,66.6,36.8,29.89,WSW,242,0.0,0.0,34,0.00,,,0.00,WUHU216WMR968SP,2014-04-24 00:15:00,